<?xml version="1.0" encoding="UTF-8" standalone="no" ?>
<gpx xmlns="http://www.topografix.com/GPX/1/1" xmlns:xsi="http://www.w3.org/2001/XMLSchema-instance" xsi:schemaLocation="http://www.topografix.com/GPX/1/1 http://www.topografix.com/GPX/1/1/gpx.xsd" version="1.1" creator="VisuGPX - https://www.visugpx.com">
  <metadata>
    <name>Aubrac - mailhebiau et autour du village d\'Aubrac </name>
    <desc><![CDATA[Randonnée en 2 temps : mailhebiau ( point culminant ) et autour du village d\'Aubrac ]]></desc>
  </metadata>
  <trk>
    <name><![CDATA[ACTIVE LOG113926]]></name>
    <trkseg>
      <trkpt lat="44.57809" lon="3.06411">
        <ele>1379.13</ele>
        <time>2011-06-25T09:39:24Z</time>
      </trkpt>
      <trkpt lat="44.57802" lon="3.06421">
        <ele>1378.252</ele>
        <time>2011-06-25T09:40:50Z</time>
      </trkpt>
      <trkpt lat="44.57792" lon="3.06427">
        <ele>1379.556</ele>
        <time>2011-06-25T09:41:02Z</time>
      </trkpt>
      <trkpt lat="44.57785" lon="3.06437">
        <ele>1380.316</ele>
        <time>2011-06-25T09:41:13Z</time>
      </trkpt>
      <trkpt lat="44.57777" lon="3.06445">
        <ele>1380.653</ele>
        <time>2011-06-25T09:41:30Z</time>
      </trkpt>
      <trkpt lat="44.57771" lon="3.06454">
        <ele>1381.149</ele>
        <time>2011-06-25T09:41:52Z</time>
      </trkpt>
      <trkpt lat="44.57765" lon="3.06464">
        <ele>1382.231</ele>
        <time>2011-06-25T09:42:02Z</time>
      </trkpt>
      <trkpt lat="44.57757" lon="3.06475">
        <ele>1383.296</ele>
        <time>2011-06-25T09:42:13Z</time>
      </trkpt>
      <trkpt lat="44.57749" lon="3.06485">
        <ele>1384.127</ele>
        <time>2011-06-25T09:42:22Z</time>
      </trkpt>
      <trkpt lat="44.57742" lon="3.06493">
        <ele>1385.056</ele>
        <time>2011-06-25T09:42:33Z</time>
      </trkpt>
      <trkpt lat="44.57734" lon="3.06502">
        <ele>1385.558</ele>
        <time>2011-06-25T09:42:44Z</time>
      </trkpt>
      <trkpt lat="44.57726" lon="3.06508">
        <ele>1386.17</ele>
        <time>2011-06-25T09:43:03Z</time>
      </trkpt>
      <trkpt lat="44.57717" lon="3.06515">
        <ele>1386.395</ele>
        <time>2011-06-25T09:43:14Z</time>
      </trkpt>
      <trkpt lat="44.5771" lon="3.06525">
        <ele>1387.295</ele>
        <time>2011-06-25T09:43:30Z</time>
      </trkpt>
      <trkpt lat="44.57701" lon="3.06532">
        <ele>1387.75</ele>
        <time>2011-06-25T09:43:40Z</time>
      </trkpt>
      <trkpt lat="44.57694" lon="3.06543">
        <ele>1388.97</ele>
        <time>2011-06-25T09:43:49Z</time>
      </trkpt>
      <trkpt lat="44.57686" lon="3.06552">
        <ele>1388.703</ele>
        <time>2011-06-25T09:43:58Z</time>
      </trkpt>
      <trkpt lat="44.57678" lon="3.06563">
        <ele>1389.19</ele>
        <time>2011-06-25T09:44:07Z</time>
      </trkpt>
      <trkpt lat="44.57668" lon="3.06573">
        <ele>1389.35</ele>
        <time>2011-06-25T09:44:17Z</time>
      </trkpt>
      <trkpt lat="44.57658" lon="3.06583">
        <ele>1389.98</ele>
        <time>2011-06-25T09:44:28Z</time>
      </trkpt>
      <trkpt lat="44.57662" lon="3.06594">
        <ele>1388.838</ele>
        <time>2011-06-25T09:44:58Z</time>
      </trkpt>
      <trkpt lat="44.57665" lon="3.06598">
        <ele>1391.239</ele>
        <time>2011-06-25T09:45:24Z</time>
      </trkpt>
      <trkpt lat="44.57668" lon="3.06615">
        <ele>1389.701</ele>
        <time>2011-06-25T09:45:46Z</time>
      </trkpt>
      <trkpt lat="44.57667" lon="3.06632">
        <ele>1390.564</ele>
        <time>2011-06-25T09:45:55Z</time>
      </trkpt>
      <trkpt lat="44.57671" lon="3.06646">
        <ele>1390.323</ele>
        <time>2011-06-25T09:46:04Z</time>
      </trkpt>
      <trkpt lat="44.57674" lon="3.06663">
        <ele>1390.259</ele>
        <time>2011-06-25T09:46:13Z</time>
      </trkpt>
      <trkpt lat="44.57678" lon="3.06675">
        <ele>1391.041</ele>
        <time>2011-06-25T09:46:22Z</time>
      </trkpt>
      <trkpt lat="44.5768" lon="3.06686">
        <ele>1391.179</ele>
        <time>2011-06-25T09:46:31Z</time>
      </trkpt>
      <trkpt lat="44.57682" lon="3.067">
        <ele>1392.404</ele>
        <time>2011-06-25T09:46:41Z</time>
      </trkpt>
      <trkpt lat="44.57684" lon="3.06715">
        <ele>1392.985</ele>
        <time>2011-06-25T09:46:49Z</time>
      </trkpt>
      <trkpt lat="44.57683" lon="3.0673">
        <ele>1393.291</ele>
        <time>2011-06-25T09:46:58Z</time>
      </trkpt>
      <trkpt lat="44.57682" lon="3.06744">
        <ele>1393.429</ele>
        <time>2011-06-25T09:47:06Z</time>
      </trkpt>
      <trkpt lat="44.57682" lon="3.06758">
        <ele>1394.45</ele>
        <time>2011-06-25T09:47:15Z</time>
      </trkpt>
      <trkpt lat="44.57682" lon="3.06771">
        <ele>1394.719</ele>
        <time>2011-06-25T09:47:24Z</time>
      </trkpt>
      <trkpt lat="44.57681" lon="3.06786">
        <ele>1394.351</ele>
        <time>2011-06-25T09:47:34Z</time>
      </trkpt>
      <trkpt lat="44.57684" lon="3.068">
        <ele>1395.916</ele>
        <time>2011-06-25T09:47:44Z</time>
      </trkpt>
      <trkpt lat="44.57681" lon="3.06815">
        <ele>1396.29</ele>
        <time>2011-06-25T09:47:54Z</time>
      </trkpt>
      <trkpt lat="44.57679" lon="3.06827">
        <ele>1396.978</ele>
        <time>2011-06-25T09:48:05Z</time>
      </trkpt>
      <trkpt lat="44.57675" lon="3.06846">
        <ele>1396.769</ele>
        <time>2011-06-25T09:48:15Z</time>
      </trkpt>
      <trkpt lat="44.57678" lon="3.06859">
        <ele>1395.173</ele>
        <time>2011-06-25T09:48:24Z</time>
      </trkpt>
      <trkpt lat="44.57679" lon="3.06874">
        <ele>1394.9</ele>
        <time>2011-06-25T09:48:34Z</time>
      </trkpt>
      <trkpt lat="44.57681" lon="3.06888">
        <ele>1393.781</ele>
        <time>2011-06-25T09:48:43Z</time>
      </trkpt>
      <trkpt lat="44.57682" lon="3.06898">
        <ele>1391.554</ele>
        <time>2011-06-25T09:48:52Z</time>
      </trkpt>
      <trkpt lat="44.57686" lon="3.06912">
        <ele>1390.396</ele>
        <time>2011-06-25T09:49:07Z</time>
      </trkpt>
      <trkpt lat="44.57685" lon="3.06925">
        <ele>1392.127</ele>
        <time>2011-06-25T09:49:20Z</time>
      </trkpt>
      <trkpt lat="44.57684" lon="3.06942">
        <ele>1391.382</ele>
        <time>2011-06-25T09:49:31Z</time>
      </trkpt>
      <trkpt lat="44.57686" lon="3.06956">
        <ele>1390.922</ele>
        <time>2011-06-25T09:49:39Z</time>
      </trkpt>
      <trkpt lat="44.57687" lon="3.0697">
        <ele>1391.541</ele>
        <time>2011-06-25T09:49:48Z</time>
      </trkpt>
      <trkpt lat="44.57685" lon="3.06983">
        <ele>1391.419</ele>
        <time>2011-06-25T09:49:57Z</time>
      </trkpt>
      <trkpt lat="44.57685" lon="3.06995">
        <ele>1391.312</ele>
        <time>2011-06-25T09:50:06Z</time>
      </trkpt>
      <trkpt lat="44.57685" lon="3.07011">
        <ele>1391.689</ele>
        <time>2011-06-25T09:50:15Z</time>
      </trkpt>
      <trkpt lat="44.57685" lon="3.07024">
        <ele>1391.786</ele>
        <time>2011-06-25T09:50:23Z</time>
      </trkpt>
      <trkpt lat="44.5768" lon="3.07036">
        <ele>1391.559</ele>
        <time>2011-06-25T09:50:32Z</time>
      </trkpt>
      <trkpt lat="44.5768" lon="3.07051">
        <ele>1391.644</ele>
        <time>2011-06-25T09:50:41Z</time>
      </trkpt>
      <trkpt lat="44.57677" lon="3.07067">
        <ele>1392.802</ele>
        <time>2011-06-25T09:50:51Z</time>
      </trkpt>
      <trkpt lat="44.57677" lon="3.07081">
        <ele>1392.728</ele>
        <time>2011-06-25T09:51:00Z</time>
      </trkpt>
      <trkpt lat="44.57678" lon="3.07096">
        <ele>1392.925</ele>
        <time>2011-06-25T09:51:08Z</time>
      </trkpt>
      <trkpt lat="44.57681" lon="3.0711">
        <ele>1393.236</ele>
        <time>2011-06-25T09:51:16Z</time>
      </trkpt>
      <trkpt lat="44.57681" lon="3.0712">
        <ele>1394.161</ele>
        <time>2011-06-25T09:51:25Z</time>
      </trkpt>
      <trkpt lat="44.57681" lon="3.07137">
        <ele>1394.661</ele>
        <time>2011-06-25T09:51:34Z</time>
      </trkpt>
      <trkpt lat="44.5768" lon="3.07151">
        <ele>1395.5</ele>
        <time>2011-06-25T09:51:43Z</time>
      </trkpt>
      <trkpt lat="44.57678" lon="3.07163">
        <ele>1395.499</ele>
        <time>2011-06-25T09:51:52Z</time>
      </trkpt>
      <trkpt lat="44.57677" lon="3.07178">
        <ele>1397.375</ele>
        <time>2011-06-25T09:52:01Z</time>
      </trkpt>
      <trkpt lat="44.57679" lon="3.07191">
        <ele>1396.505</ele>
        <time>2011-06-25T09:52:09Z</time>
      </trkpt>
      <trkpt lat="44.57679" lon="3.07204">
        <ele>1395.586</ele>
        <time>2011-06-25T09:52:17Z</time>
      </trkpt>
      <trkpt lat="44.5768" lon="3.07216">
        <ele>1396.641</ele>
        <time>2011-06-25T09:52:25Z</time>
      </trkpt>
      <trkpt lat="44.57681" lon="3.07228">
        <ele>1396.761</ele>
        <time>2011-06-25T09:52:34Z</time>
      </trkpt>
      <trkpt lat="44.5768" lon="3.07243">
        <ele>1397.039</ele>
        <time>2011-06-25T09:52:43Z</time>
      </trkpt>
      <trkpt lat="44.57683" lon="3.07256">
        <ele>1397.443</ele>
        <time>2011-06-25T09:52:54Z</time>
      </trkpt>
      <trkpt lat="44.57683" lon="3.07268">
        <ele>1397.648</ele>
        <time>2011-06-25T09:53:03Z</time>
      </trkpt>
      <trkpt lat="44.57685" lon="3.07282">
        <ele>1399.891</ele>
        <time>2011-06-25T09:53:11Z</time>
      </trkpt>
      <trkpt lat="44.57683" lon="3.07297">
        <ele>1400.13</ele>
        <time>2011-06-25T09:53:21Z</time>
      </trkpt>
      <trkpt lat="44.57683" lon="3.07311">
        <ele>1401.592</ele>
        <time>2011-06-25T09:53:35Z</time>
      </trkpt>
      <trkpt lat="44.57684" lon="3.07324">
        <ele>1401.221</ele>
        <time>2011-06-25T09:53:44Z</time>
      </trkpt>
      <trkpt lat="44.57681" lon="3.07338">
        <ele>1401.396</ele>
        <time>2011-06-25T09:53:53Z</time>
      </trkpt>
      <trkpt lat="44.57676" lon="3.07353">
        <ele>1403.676</ele>
        <time>2011-06-25T09:54:03Z</time>
      </trkpt>
      <trkpt lat="44.57668" lon="3.07367">
        <ele>1403.702</ele>
        <time>2011-06-25T09:54:17Z</time>
      </trkpt>
      <trkpt lat="44.57665" lon="3.07381">
        <ele>1403.695</ele>
        <time>2011-06-25T09:54:45Z</time>
      </trkpt>
      <trkpt lat="44.57666" lon="3.07395">
        <ele>1404.217</ele>
        <time>2011-06-25T09:54:55Z</time>
      </trkpt>
      <trkpt lat="44.57668" lon="3.07408">
        <ele>1403.98</ele>
        <time>2011-06-25T09:55:04Z</time>
      </trkpt>
      <trkpt lat="44.57668" lon="3.07424">
        <ele>1404.388</ele>
        <time>2011-06-25T09:55:13Z</time>
      </trkpt>
      <trkpt lat="44.5767" lon="3.07439">
        <ele>1404.713</ele>
        <time>2011-06-25T09:55:22Z</time>
      </trkpt>
      <trkpt lat="44.57669" lon="3.0745">
        <ele>1404.915</ele>
        <time>2011-06-25T09:55:31Z</time>
      </trkpt>
      <trkpt lat="44.57674" lon="3.07462">
        <ele>1404.588</ele>
        <time>2011-06-25T09:55:40Z</time>
      </trkpt>
      <trkpt lat="44.57681" lon="3.07472">
        <ele>1405.144</ele>
        <time>2011-06-25T09:55:48Z</time>
      </trkpt>
      <trkpt lat="44.57685" lon="3.07485">
        <ele>1404.513</ele>
        <time>2011-06-25T09:55:56Z</time>
      </trkpt>
      <trkpt lat="44.57691" lon="3.07496">
        <ele>1405.049</ele>
        <time>2011-06-25T09:56:04Z</time>
      </trkpt>
      <trkpt lat="44.57692" lon="3.0751">
        <ele>1406.839</ele>
        <time>2011-06-25T09:56:12Z</time>
      </trkpt>
      <trkpt lat="44.5769" lon="3.07525">
        <ele>1406.881</ele>
        <time>2011-06-25T09:56:21Z</time>
      </trkpt>
      <trkpt lat="44.57689" lon="3.0754">
        <ele>1406.8</ele>
        <time>2011-06-25T09:56:29Z</time>
      </trkpt>
      <trkpt lat="44.57688" lon="3.07555">
        <ele>1408.356</ele>
        <time>2011-06-25T09:56:38Z</time>
      </trkpt>
      <trkpt lat="44.57688" lon="3.07568">
        <ele>1407.886</ele>
        <time>2011-06-25T09:56:46Z</time>
      </trkpt>
      <trkpt lat="44.57688" lon="3.07579">
        <ele>1408.927</ele>
        <time>2011-06-25T09:56:54Z</time>
      </trkpt>
      <trkpt lat="44.57684" lon="3.07593">
        <ele>1409.289</ele>
        <time>2011-06-25T09:57:33Z</time>
      </trkpt>
      <trkpt lat="44.57683" lon="3.07607">
        <ele>1410.943</ele>
        <time>2011-06-25T09:57:43Z</time>
      </trkpt>
      <trkpt lat="44.57683" lon="3.07622">
        <ele>1409.225</ele>
        <time>2011-06-25T09:57:52Z</time>
      </trkpt>
      <trkpt lat="44.57682" lon="3.07636">
        <ele>1410.142</ele>
        <time>2011-06-25T09:58:01Z</time>
      </trkpt>
      <trkpt lat="44.57682" lon="3.07653">
        <ele>1409.378</ele>
        <time>2011-06-25T09:58:09Z</time>
      </trkpt>
      <trkpt lat="44.57682" lon="3.0767">
        <ele>1409.296</ele>
        <time>2011-06-25T09:58:18Z</time>
      </trkpt>
      <trkpt lat="44.57684" lon="3.07684">
        <ele>1408.665</ele>
        <time>2011-06-25T09:58:26Z</time>
      </trkpt>
      <trkpt lat="44.57685" lon="3.07696">
        <ele>1409.398</ele>
        <time>2011-06-25T09:58:34Z</time>
      </trkpt>
      <trkpt lat="44.57685" lon="3.07711">
        <ele>1409.245</ele>
        <time>2011-06-25T09:58:44Z</time>
      </trkpt>
      <trkpt lat="44.57685" lon="3.07723">
        <ele>1409.375</ele>
        <time>2011-06-25T09:58:52Z</time>
      </trkpt>
      <trkpt lat="44.57688" lon="3.07734">
        <ele>1408.282</ele>
        <time>2011-06-25T09:59:01Z</time>
      </trkpt>
      <trkpt lat="44.5769" lon="3.07751">
        <ele>1408.921</ele>
        <time>2011-06-25T09:59:09Z</time>
      </trkpt>
      <trkpt lat="44.57693" lon="3.07762">
        <ele>1409.275</ele>
        <time>2011-06-25T09:59:17Z</time>
      </trkpt>
      <trkpt lat="44.57699" lon="3.07773">
        <ele>1409.493</ele>
        <time>2011-06-25T09:59:25Z</time>
      </trkpt>
      <trkpt lat="44.577" lon="3.07789">
        <ele>1409.127</ele>
        <time>2011-06-25T09:59:33Z</time>
      </trkpt>
      <trkpt lat="44.57702" lon="3.07802">
        <ele>1410.304</ele>
        <time>2011-06-25T09:59:41Z</time>
      </trkpt>
      <trkpt lat="44.57703" lon="3.07815">
        <ele>1410.536</ele>
        <time>2011-06-25T09:59:48Z</time>
      </trkpt>
      <trkpt lat="44.57702" lon="3.07826">
        <ele>1410.893</ele>
        <time>2011-06-25T09:59:55Z</time>
      </trkpt>
      <trkpt lat="44.57702" lon="3.07838">
        <ele>1410.915</ele>
        <time>2011-06-25T10:00:04Z</time>
      </trkpt>
      <trkpt lat="44.57702" lon="3.07849">
        <ele>1410.325</ele>
        <time>2011-06-25T10:00:13Z</time>
      </trkpt>
      <trkpt lat="44.57701" lon="3.07865">
        <ele>1410.691</ele>
        <time>2011-06-25T10:00:21Z</time>
      </trkpt>
      <trkpt lat="44.57703" lon="3.07877">
        <ele>1410.867</ele>
        <time>2011-06-25T10:00:29Z</time>
      </trkpt>
      <trkpt lat="44.57705" lon="3.0789">
        <ele>1411.505</ele>
        <time>2011-06-25T10:00:37Z</time>
      </trkpt>
      <trkpt lat="44.57704" lon="3.07905">
        <ele>1412.103</ele>
        <time>2011-06-25T10:00:45Z</time>
      </trkpt>
      <trkpt lat="44.57704" lon="3.07918">
        <ele>1410.432</ele>
        <time>2011-06-25T10:00:53Z</time>
      </trkpt>
      <trkpt lat="44.57706" lon="3.07931">
        <ele>1411.783</ele>
        <time>2011-06-25T10:01:01Z</time>
      </trkpt>
      <trkpt lat="44.57709" lon="3.07948">
        <ele>1411.811</ele>
        <time>2011-06-25T10:01:09Z</time>
      </trkpt>
      <trkpt lat="44.57711" lon="3.07961">
        <ele>1412.644</ele>
        <time>2011-06-25T10:01:17Z</time>
      </trkpt>
      <trkpt lat="44.5771" lon="3.07979">
        <ele>1411.981</ele>
        <time>2011-06-25T10:01:25Z</time>
      </trkpt>
      <trkpt lat="44.57711" lon="3.0799">
        <ele>1412.568</ele>
        <time>2011-06-25T10:01:33Z</time>
      </trkpt>
      <trkpt lat="44.57713" lon="3.08003">
        <ele>1412.634</ele>
        <time>2011-06-25T10:01:42Z</time>
      </trkpt>
      <trkpt lat="44.57714" lon="3.08018">
        <ele>1412.407</ele>
        <time>2011-06-25T10:01:50Z</time>
      </trkpt>
      <trkpt lat="44.57716" lon="3.08031">
        <ele>1413.27</ele>
        <time>2011-06-25T10:01:57Z</time>
      </trkpt>
      <trkpt lat="44.57717" lon="3.08043">
        <ele>1412.368</ele>
        <time>2011-06-25T10:02:05Z</time>
      </trkpt>
      <trkpt lat="44.5772" lon="3.08052">
        <ele>1411.284</ele>
        <time>2011-06-25T10:02:13Z</time>
      </trkpt>
      <trkpt lat="44.57722" lon="3.08065">
        <ele>1410.654</ele>
        <time>2011-06-25T10:02:21Z</time>
      </trkpt>
      <trkpt lat="44.57723" lon="3.08078">
        <ele>1409.874</ele>
        <time>2011-06-25T10:02:28Z</time>
      </trkpt>
      <trkpt lat="44.5772" lon="3.08091">
        <ele>1411.637</ele>
        <time>2011-06-25T10:02:36Z</time>
      </trkpt>
      <trkpt lat="44.57717" lon="3.08106">
        <ele>1410.495</ele>
        <time>2011-06-25T10:02:46Z</time>
      </trkpt>
      <trkpt lat="44.57714" lon="3.08117">
        <ele>1410.531</ele>
        <time>2011-06-25T10:02:54Z</time>
      </trkpt>
      <trkpt lat="44.5771" lon="3.08131">
        <ele>1410.365</ele>
        <time>2011-06-25T10:03:02Z</time>
      </trkpt>
      <trkpt lat="44.57711" lon="3.08146">
        <ele>1409.668</ele>
        <time>2011-06-25T10:03:11Z</time>
      </trkpt>
      <trkpt lat="44.57713" lon="3.08159">
        <ele>1407.765</ele>
        <time>2011-06-25T10:03:20Z</time>
      </trkpt>
      <trkpt lat="44.57717" lon="3.08171">
        <ele>1408.279</ele>
        <time>2011-06-25T10:03:29Z</time>
      </trkpt>
      <trkpt lat="44.57718" lon="3.08186">
        <ele>1407.234</ele>
        <time>2011-06-25T10:03:38Z</time>
      </trkpt>
      <trkpt lat="44.57721" lon="3.082">
        <ele>1407.585</ele>
        <time>2011-06-25T10:03:47Z</time>
      </trkpt>
      <trkpt lat="44.57715" lon="3.08204">
        <ele>1406.025</ele>
        <time>2011-06-25T10:05:55Z</time>
      </trkpt>
      <trkpt lat="44.57716" lon="3.08216">
        <ele>1405.864</ele>
        <time>2011-06-25T10:07:06Z</time>
      </trkpt>
      <trkpt lat="44.57726" lon="3.08226">
        <ele>1404.74</ele>
        <time>2011-06-25T10:07:35Z</time>
      </trkpt>
      <trkpt lat="44.57741" lon="3.08232">
        <ele>1402.542</ele>
        <time>2011-06-25T10:07:46Z</time>
      </trkpt>
      <trkpt lat="44.57749" lon="3.08241">
        <ele>1402.251</ele>
        <time>2011-06-25T10:07:54Z</time>
      </trkpt>
      <trkpt lat="44.57757" lon="3.08248">
        <ele>1400.535</ele>
        <time>2011-06-25T10:08:01Z</time>
      </trkpt>
      <trkpt lat="44.57764" lon="3.0826">
        <ele>1399.357</ele>
        <time>2011-06-25T10:08:17Z</time>
      </trkpt>
      <trkpt lat="44.57768" lon="3.08273">
        <ele>1399.473</ele>
        <time>2011-06-25T10:08:25Z</time>
      </trkpt>
      <trkpt lat="44.57771" lon="3.08286">
        <ele>1399.165</ele>
        <time>2011-06-25T10:08:33Z</time>
      </trkpt>
      <trkpt lat="44.57772" lon="3.08299">
        <ele>1399.557</ele>
        <time>2011-06-25T10:08:42Z</time>
      </trkpt>
      <trkpt lat="44.5778" lon="3.08307">
        <ele>1398.699</ele>
        <time>2011-06-25T10:08:53Z</time>
      </trkpt>
      <trkpt lat="44.57781" lon="3.0832">
        <ele>1398.931</ele>
        <time>2011-06-25T10:09:07Z</time>
      </trkpt>
      <trkpt lat="44.57785" lon="3.08331">
        <ele>1397.087</ele>
        <time>2011-06-25T10:09:20Z</time>
      </trkpt>
      <trkpt lat="44.5779" lon="3.08344">
        <ele>1397.131</ele>
        <time>2011-06-25T10:09:28Z</time>
      </trkpt>
      <trkpt lat="44.57794" lon="3.08355">
        <ele>1396.039</ele>
        <time>2011-06-25T10:09:36Z</time>
      </trkpt>
      <trkpt lat="44.57796" lon="3.08367">
        <ele>1396.799</ele>
        <time>2011-06-25T10:09:44Z</time>
      </trkpt>
      <trkpt lat="44.57801" lon="3.08379">
        <ele>1395.491</ele>
        <time>2011-06-25T10:09:52Z</time>
      </trkpt>
      <trkpt lat="44.57805" lon="3.08389">
        <ele>1396.818</ele>
        <time>2011-06-25T10:10:00Z</time>
      </trkpt>
      <trkpt lat="44.57809" lon="3.08403">
        <ele>1396.009</ele>
        <time>2011-06-25T10:10:08Z</time>
      </trkpt>
      <trkpt lat="44.57811" lon="3.08415">
        <ele>1395.495</ele>
        <time>2011-06-25T10:10:16Z</time>
      </trkpt>
      <trkpt lat="44.57814" lon="3.08428">
        <ele>1394.826</ele>
        <time>2011-06-25T10:10:24Z</time>
      </trkpt>
      <trkpt lat="44.57818" lon="3.0844">
        <ele>1394.757</ele>
        <time>2011-06-25T10:10:32Z</time>
      </trkpt>
      <trkpt lat="44.5782" lon="3.08454">
        <ele>1394.893</ele>
        <time>2011-06-25T10:10:40Z</time>
      </trkpt>
      <trkpt lat="44.57825" lon="3.08466">
        <ele>1393.466</ele>
        <time>2011-06-25T10:10:48Z</time>
      </trkpt>
      <trkpt lat="44.57828" lon="3.08479">
        <ele>1394.38</ele>
        <time>2011-06-25T10:10:56Z</time>
      </trkpt>
      <trkpt lat="44.5783" lon="3.08492">
        <ele>1394.827</ele>
        <time>2011-06-25T10:11:05Z</time>
      </trkpt>
      <trkpt lat="44.57835" lon="3.08504">
        <ele>1393.752</ele>
        <time>2011-06-25T10:11:12Z</time>
      </trkpt>
      <trkpt lat="44.57839" lon="3.08516">
        <ele>1394.649</ele>
        <time>2011-06-25T10:11:20Z</time>
      </trkpt>
      <trkpt lat="44.57843" lon="3.08527">
        <ele>1393.611</ele>
        <time>2011-06-25T10:11:27Z</time>
      </trkpt>
      <trkpt lat="44.57846" lon="3.08538">
        <ele>1392.61</ele>
        <time>2011-06-25T10:11:35Z</time>
      </trkpt>
      <trkpt lat="44.57849" lon="3.08549">
        <ele>1393.769</ele>
        <time>2011-06-25T10:11:43Z</time>
      </trkpt>
      <trkpt lat="44.57853" lon="3.08561">
        <ele>1393.561</ele>
        <time>2011-06-25T10:11:51Z</time>
      </trkpt>
      <trkpt lat="44.57857" lon="3.08572">
        <ele>1393.025</ele>
        <time>2011-06-25T10:11:59Z</time>
      </trkpt>
      <trkpt lat="44.57859" lon="3.08584">
        <ele>1393.616</ele>
        <time>2011-06-25T10:12:07Z</time>
      </trkpt>
      <trkpt lat="44.57862" lon="3.08597">
        <ele>1394.495</ele>
        <time>2011-06-25T10:12:15Z</time>
      </trkpt>
      <trkpt lat="44.57862" lon="3.08615">
        <ele>1394.16</ele>
        <time>2011-06-25T10:12:24Z</time>
      </trkpt>
      <trkpt lat="44.57868" lon="3.08627">
        <ele>1393.621</ele>
        <time>2011-06-25T10:12:32Z</time>
      </trkpt>
      <trkpt lat="44.57871" lon="3.08641">
        <ele>1393.078</ele>
        <time>2011-06-25T10:12:40Z</time>
      </trkpt>
      <trkpt lat="44.57874" lon="3.08652">
        <ele>1391.939</ele>
        <time>2011-06-25T10:12:48Z</time>
      </trkpt>
      <trkpt lat="44.57877" lon="3.08663">
        <ele>1391.13</ele>
        <time>2011-06-25T10:12:56Z</time>
      </trkpt>
      <trkpt lat="44.57878" lon="3.08676">
        <ele>1390.185</ele>
        <time>2011-06-25T10:13:06Z</time>
      </trkpt>
      <trkpt lat="44.57876" lon="3.08679">
        <ele>1392.456</ele>
        <time>2011-06-25T10:14:10Z</time>
      </trkpt>
      <trkpt lat="44.57873" lon="3.0867">
        <ele>1392.565</ele>
        <time>2011-06-25T10:14:22Z</time>
      </trkpt>
      <trkpt lat="44.57863" lon="3.08666">
        <ele>1393.433</ele>
        <time>2011-06-25T10:14:58Z</time>
      </trkpt>
      <trkpt lat="44.57853" lon="3.0866">
        <ele>1395.152</ele>
        <time>2011-06-25T10:15:11Z</time>
      </trkpt>
      <trkpt lat="44.57849" lon="3.08652">
        <ele>1393.977</ele>
        <time>2011-06-25T10:17:09Z</time>
      </trkpt>
      <trkpt lat="44.57841" lon="3.08642">
        <ele>1395.98</ele>
        <time>2011-06-25T10:17:18Z</time>
      </trkpt>
      <trkpt lat="44.5783" lon="3.08634">
        <ele>1396.869</ele>
        <time>2011-06-25T10:17:27Z</time>
      </trkpt>
      <trkpt lat="44.57819" lon="3.08629">
        <ele>1397.604</ele>
        <time>2011-06-25T10:17:35Z</time>
      </trkpt>
      <trkpt lat="44.57809" lon="3.08624">
        <ele>1397.047</ele>
        <time>2011-06-25T10:17:44Z</time>
      </trkpt>
      <trkpt lat="44.578" lon="3.08616">
        <ele>1397.728</ele>
        <time>2011-06-25T10:17:53Z</time>
      </trkpt>
      <trkpt lat="44.57793" lon="3.08607">
        <ele>1398.119</ele>
        <time>2011-06-25T10:18:01Z</time>
      </trkpt>
      <trkpt lat="44.57786" lon="3.08602">
        <ele>1398.337</ele>
        <time>2011-06-25T10:18:09Z</time>
      </trkpt>
      <trkpt lat="44.57778" lon="3.08598">
        <ele>1398.647</ele>
        <time>2011-06-25T10:18:17Z</time>
      </trkpt>
      <trkpt lat="44.57769" lon="3.08596">
        <ele>1399.501</ele>
        <time>2011-06-25T10:18:24Z</time>
      </trkpt>
      <trkpt lat="44.57759" lon="3.08594">
        <ele>1399.839</ele>
        <time>2011-06-25T10:18:30Z</time>
      </trkpt>
      <trkpt lat="44.5775" lon="3.08593">
        <ele>1400.891</ele>
        <time>2011-06-25T10:18:39Z</time>
      </trkpt>
      <trkpt lat="44.57739" lon="3.08589">
        <ele>1402.594</ele>
        <time>2011-06-25T10:18:49Z</time>
      </trkpt>
      <trkpt lat="44.57728" lon="3.08585">
        <ele>1402.869</ele>
        <time>2011-06-25T10:18:58Z</time>
      </trkpt>
      <trkpt lat="44.57719" lon="3.08582">
        <ele>1403.713</ele>
        <time>2011-06-25T10:19:07Z</time>
      </trkpt>
      <trkpt lat="44.57708" lon="3.08581">
        <ele>1405.611</ele>
        <time>2011-06-25T10:19:17Z</time>
      </trkpt>
      <trkpt lat="44.57698" lon="3.08579">
        <ele>1407.335</ele>
        <time>2011-06-25T10:19:26Z</time>
      </trkpt>
      <trkpt lat="44.57688" lon="3.08572">
        <ele>1408.556</ele>
        <time>2011-06-25T10:19:36Z</time>
      </trkpt>
      <trkpt lat="44.5768" lon="3.08567">
        <ele>1409.897</ele>
        <time>2011-06-25T10:19:45Z</time>
      </trkpt>
      <trkpt lat="44.5767" lon="3.0856">
        <ele>1410.985</ele>
        <time>2011-06-25T10:19:54Z</time>
      </trkpt>
      <trkpt lat="44.5766" lon="3.08555">
        <ele>1412.412</ele>
        <time>2011-06-25T10:20:03Z</time>
      </trkpt>
      <trkpt lat="44.5765" lon="3.08553">
        <ele>1412.992</ele>
        <time>2011-06-25T10:20:12Z</time>
      </trkpt>
      <trkpt lat="44.57641" lon="3.08548">
        <ele>1413.052</ele>
        <time>2011-06-25T10:20:21Z</time>
      </trkpt>
      <trkpt lat="44.57632" lon="3.08546">
        <ele>1412.203</ele>
        <time>2011-06-25T10:20:29Z</time>
      </trkpt>
      <trkpt lat="44.57626" lon="3.08537">
        <ele>1412.252</ele>
        <time>2011-06-25T10:20:38Z</time>
      </trkpt>
      <trkpt lat="44.57618" lon="3.08529">
        <ele>1411.279</ele>
        <time>2011-06-25T10:20:45Z</time>
      </trkpt>
      <trkpt lat="44.57612" lon="3.0852">
        <ele>1411.079</ele>
        <time>2011-06-25T10:20:53Z</time>
      </trkpt>
      <trkpt lat="44.57607" lon="3.08512">
        <ele>1410.163</ele>
        <time>2011-06-25T10:21:02Z</time>
      </trkpt>
      <trkpt lat="44.57599" lon="3.08502">
        <ele>1410.18</ele>
        <time>2011-06-25T10:21:11Z</time>
      </trkpt>
      <trkpt lat="44.57591" lon="3.08492">
        <ele>1410.386</ele>
        <time>2011-06-25T10:21:29Z</time>
      </trkpt>
      <trkpt lat="44.57584" lon="3.08482">
        <ele>1411.116</ele>
        <time>2011-06-25T10:21:38Z</time>
      </trkpt>
      <trkpt lat="44.57575" lon="3.08474">
        <ele>1411.299</ele>
        <time>2011-06-25T10:21:51Z</time>
      </trkpt>
      <trkpt lat="44.57568" lon="3.08464">
        <ele>1411.754</ele>
        <time>2011-06-25T10:22:01Z</time>
      </trkpt>
      <trkpt lat="44.5756" lon="3.08456">
        <ele>1411.577</ele>
        <time>2011-06-25T10:22:11Z</time>
      </trkpt>
      <trkpt lat="44.57551" lon="3.08445">
        <ele>1412.535</ele>
        <time>2011-06-25T10:22:57Z</time>
      </trkpt>
      <trkpt lat="44.57542" lon="3.08432">
        <ele>1413.554</ele>
        <time>2011-06-25T10:23:08Z</time>
      </trkpt>
      <trkpt lat="44.57538" lon="3.0842">
        <ele>1413.513</ele>
        <time>2011-06-25T10:23:24Z</time>
      </trkpt>
      <trkpt lat="44.57531" lon="3.08409">
        <ele>1414.038</ele>
        <time>2011-06-25T10:23:34Z</time>
      </trkpt>
      <trkpt lat="44.57534" lon="3.08394">
        <ele>1414.071</ele>
        <time>2011-06-25T10:23:51Z</time>
      </trkpt>
      <trkpt lat="44.57527" lon="3.08384">
        <ele>1413.937</ele>
        <time>2011-06-25T10:23:58Z</time>
      </trkpt>
      <trkpt lat="44.5752" lon="3.08375">
        <ele>1414.448</ele>
        <time>2011-06-25T10:24:06Z</time>
      </trkpt>
      <trkpt lat="44.57513" lon="3.0837">
        <ele>1415.039</ele>
        <time>2011-06-25T10:24:14Z</time>
      </trkpt>
      <trkpt lat="44.57504" lon="3.08361">
        <ele>1414.423</ele>
        <time>2011-06-25T10:24:23Z</time>
      </trkpt>
      <trkpt lat="44.57496" lon="3.08352">
        <ele>1414.46</ele>
        <time>2011-06-25T10:24:32Z</time>
      </trkpt>
      <trkpt lat="44.57491" lon="3.0834">
        <ele>1414.497</ele>
        <time>2011-06-25T10:24:40Z</time>
      </trkpt>
      <trkpt lat="44.57484" lon="3.08332">
        <ele>1415.038</ele>
        <time>2011-06-25T10:24:49Z</time>
      </trkpt>
      <trkpt lat="44.57475" lon="3.08326">
        <ele>1414.869</ele>
        <time>2011-06-25T10:24:58Z</time>
      </trkpt>
      <trkpt lat="44.57467" lon="3.08319">
        <ele>1415.095</ele>
        <time>2011-06-25T10:25:07Z</time>
      </trkpt>
      <trkpt lat="44.57459" lon="3.08309">
        <ele>1414.83</ele>
        <time>2011-06-25T10:25:16Z</time>
      </trkpt>
      <trkpt lat="44.57453" lon="3.08301">
        <ele>1415.425</ele>
        <time>2011-06-25T10:25:26Z</time>
      </trkpt>
      <trkpt lat="44.57445" lon="3.0829">
        <ele>1414.754</ele>
        <time>2011-06-25T10:25:36Z</time>
      </trkpt>
      <trkpt lat="44.5744" lon="3.08283">
        <ele>1415.535</ele>
        <time>2011-06-25T10:25:45Z</time>
      </trkpt>
      <trkpt lat="44.57434" lon="3.08273">
        <ele>1415.802</ele>
        <time>2011-06-25T10:25:54Z</time>
      </trkpt>
      <trkpt lat="44.57425" lon="3.08263">
        <ele>1415.709</ele>
        <time>2011-06-25T10:26:04Z</time>
      </trkpt>
      <trkpt lat="44.57415" lon="3.08261">
        <ele>1415.151</ele>
        <time>2011-06-25T10:26:19Z</time>
      </trkpt>
      <trkpt lat="44.57405" lon="3.08263">
        <ele>1413.919</ele>
        <time>2011-06-25T10:26:29Z</time>
      </trkpt>
      <trkpt lat="44.57394" lon="3.08262">
        <ele>1413.393</ele>
        <time>2011-06-25T10:26:38Z</time>
      </trkpt>
      <trkpt lat="44.57383" lon="3.08262">
        <ele>1412.419</ele>
        <time>2011-06-25T10:26:46Z</time>
      </trkpt>
      <trkpt lat="44.57373" lon="3.08263">
        <ele>1411.491</ele>
        <time>2011-06-25T10:26:56Z</time>
      </trkpt>
      <trkpt lat="44.57364" lon="3.08268">
        <ele>1410.029</ele>
        <time>2011-06-25T10:27:06Z</time>
      </trkpt>
      <trkpt lat="44.57355" lon="3.08272">
        <ele>1407.926</ele>
        <time>2011-06-25T10:27:16Z</time>
      </trkpt>
      <trkpt lat="44.57345" lon="3.08273">
        <ele>1407.076</ele>
        <time>2011-06-25T10:27:26Z</time>
      </trkpt>
      <trkpt lat="44.57338" lon="3.08281">
        <ele>1406.274</ele>
        <time>2011-06-25T10:27:35Z</time>
      </trkpt>
      <trkpt lat="44.57328" lon="3.08286">
        <ele>1404.974</ele>
        <time>2011-06-25T10:27:43Z</time>
      </trkpt>
      <trkpt lat="44.57318" lon="3.08291">
        <ele>1404.272</ele>
        <time>2011-06-25T10:27:51Z</time>
      </trkpt>
      <trkpt lat="44.57308" lon="3.08295">
        <ele>1403.092</ele>
        <time>2011-06-25T10:28:00Z</time>
      </trkpt>
      <trkpt lat="44.57301" lon="3.08302">
        <ele>1401.794</ele>
        <time>2011-06-25T10:28:09Z</time>
      </trkpt>
      <trkpt lat="44.57293" lon="3.08311">
        <ele>1399.951</ele>
        <time>2011-06-25T10:28:19Z</time>
      </trkpt>
      <trkpt lat="44.57287" lon="3.0832">
        <ele>1397.841</ele>
        <time>2011-06-25T10:28:30Z</time>
      </trkpt>
      <trkpt lat="44.5728" lon="3.08327">
        <ele>1396.982</ele>
        <time>2011-06-25T10:28:41Z</time>
      </trkpt>
      <trkpt lat="44.57272" lon="3.08321">
        <ele>1396.766</ele>
        <time>2011-06-25T10:29:02Z</time>
      </trkpt>
      <trkpt lat="44.57261" lon="3.08327">
        <ele>1398.165</ele>
        <time>2011-06-25T10:29:52Z</time>
      </trkpt>
      <trkpt lat="44.57251" lon="3.08331">
        <ele>1399.182</ele>
        <time>2011-06-25T10:30:03Z</time>
      </trkpt>
      <trkpt lat="44.57241" lon="3.08331">
        <ele>1400.221</ele>
        <time>2011-06-25T10:30:14Z</time>
      </trkpt>
      <trkpt lat="44.57232" lon="3.08331">
        <ele>1400.558</ele>
        <time>2011-06-25T10:30:23Z</time>
      </trkpt>
      <trkpt lat="44.57223" lon="3.08331">
        <ele>1402.36</ele>
        <time>2011-06-25T10:30:33Z</time>
      </trkpt>
      <trkpt lat="44.57214" lon="3.0833">
        <ele>1402.771</ele>
        <time>2011-06-25T10:30:43Z</time>
      </trkpt>
      <trkpt lat="44.57204" lon="3.08333">
        <ele>1404.427</ele>
        <time>2011-06-25T10:30:53Z</time>
      </trkpt>
      <trkpt lat="44.57195" lon="3.08334">
        <ele>1405.992</ele>
        <time>2011-06-25T10:31:03Z</time>
      </trkpt>
      <trkpt lat="44.57186" lon="3.08339">
        <ele>1406.64</ele>
        <time>2011-06-25T10:31:12Z</time>
      </trkpt>
      <trkpt lat="44.57178" lon="3.08345">
        <ele>1407.235</ele>
        <time>2011-06-25T10:31:20Z</time>
      </trkpt>
      <trkpt lat="44.57174" lon="3.08354">
        <ele>1408.293</ele>
        <time>2011-06-25T10:31:29Z</time>
      </trkpt>
      <trkpt lat="44.57166" lon="3.08363">
        <ele>1409.115</ele>
        <time>2011-06-25T10:31:39Z</time>
      </trkpt>
      <trkpt lat="44.57158" lon="3.0837">
        <ele>1410.675</ele>
        <time>2011-06-25T10:31:49Z</time>
      </trkpt>
      <trkpt lat="44.57154" lon="3.0838">
        <ele>1411.221</ele>
        <time>2011-06-25T10:31:58Z</time>
      </trkpt>
      <trkpt lat="44.57147" lon="3.08388">
        <ele>1411.553</ele>
        <time>2011-06-25T10:32:06Z</time>
      </trkpt>
      <trkpt lat="44.5714" lon="3.08397">
        <ele>1412.835</ele>
        <time>2011-06-25T10:32:14Z</time>
      </trkpt>
      <trkpt lat="44.57134" lon="3.08405">
        <ele>1413.326</ele>
        <time>2011-06-25T10:32:23Z</time>
      </trkpt>
      <trkpt lat="44.57127" lon="3.08412">
        <ele>1414.749</ele>
        <time>2011-06-25T10:32:33Z</time>
      </trkpt>
      <trkpt lat="44.57119" lon="3.08419">
        <ele>1415.682</ele>
        <time>2011-06-25T10:32:46Z</time>
      </trkpt>
      <trkpt lat="44.57123" lon="3.08414">
        <ele>1416.494</ele>
        <time>2011-06-25T10:33:04Z</time>
      </trkpt>
      <trkpt lat="44.57129" lon="3.08411">
        <ele>1414.771</ele>
        <time>2011-06-25T10:34:14Z</time>
      </trkpt>
      <trkpt lat="44.57118" lon="3.08419">
        <ele>1415.618</ele>
        <time>2011-06-25T10:34:28Z</time>
      </trkpt>
      <trkpt lat="44.5711" lon="3.08428">
        <ele>1416.704</ele>
        <time>2011-06-25T10:34:41Z</time>
      </trkpt>
      <trkpt lat="44.57102" lon="3.08434">
        <ele>1417.957</ele>
        <time>2011-06-25T10:34:52Z</time>
      </trkpt>
      <trkpt lat="44.57092" lon="3.08438">
        <ele>1418.804</ele>
        <time>2011-06-25T10:35:03Z</time>
      </trkpt>
      <trkpt lat="44.57083" lon="3.0844">
        <ele>1420.578</ele>
        <time>2011-06-25T10:35:13Z</time>
      </trkpt>
      <trkpt lat="44.57074" lon="3.08444">
        <ele>1421.073</ele>
        <time>2011-06-25T10:35:23Z</time>
      </trkpt>
      <trkpt lat="44.57065" lon="3.08447">
        <ele>1422.405</ele>
        <time>2011-06-25T10:35:35Z</time>
      </trkpt>
      <trkpt lat="44.57056" lon="3.08455">
        <ele>1423.494</ele>
        <time>2011-06-25T10:35:45Z</time>
      </trkpt>
      <trkpt lat="44.57048" lon="3.08462">
        <ele>1426.516</ele>
        <time>2011-06-25T10:35:55Z</time>
      </trkpt>
      <trkpt lat="44.57041" lon="3.0847">
        <ele>1425.543</ele>
        <time>2011-06-25T10:36:06Z</time>
      </trkpt>
      <trkpt lat="44.57034" lon="3.08475">
        <ele>1426.041</ele>
        <time>2011-06-25T10:36:22Z</time>
      </trkpt>
      <trkpt lat="44.57023" lon="3.08481">
        <ele>1426.491</ele>
        <time>2011-06-25T10:36:33Z</time>
      </trkpt>
      <trkpt lat="44.57014" lon="3.0849">
        <ele>1427.652</ele>
        <time>2011-06-25T10:36:43Z</time>
      </trkpt>
      <trkpt lat="44.57009" lon="3.08498">
        <ele>1428.393</ele>
        <time>2011-06-25T10:36:52Z</time>
      </trkpt>
      <trkpt lat="44.57003" lon="3.0851">
        <ele>1429.15</ele>
        <time>2011-06-25T10:37:02Z</time>
      </trkpt>
      <trkpt lat="44.56995" lon="3.08522">
        <ele>1429.861</ele>
        <time>2011-06-25T10:37:13Z</time>
      </trkpt>
      <trkpt lat="44.56986" lon="3.0853">
        <ele>1430.392</ele>
        <time>2011-06-25T10:37:23Z</time>
      </trkpt>
      <trkpt lat="44.5698" lon="3.08536">
        <ele>1430.766</ele>
        <time>2011-06-25T10:37:33Z</time>
      </trkpt>
      <trkpt lat="44.56969" lon="3.08539">
        <ele>1431.612</ele>
        <time>2011-06-25T10:37:46Z</time>
      </trkpt>
      <trkpt lat="44.56957" lon="3.08534">
        <ele>1432.445</ele>
        <time>2011-06-25T10:37:55Z</time>
      </trkpt>
      <trkpt lat="44.56946" lon="3.08531">
        <ele>1433.666</ele>
        <time>2011-06-25T10:38:18Z</time>
      </trkpt>
      <trkpt lat="44.56935" lon="3.08529">
        <ele>1434.344</ele>
        <time>2011-06-25T10:38:32Z</time>
      </trkpt>
      <trkpt lat="44.56925" lon="3.08529">
        <ele>1434.699</ele>
        <time>2011-06-25T10:38:41Z</time>
      </trkpt>
      <trkpt lat="44.56915" lon="3.08526">
        <ele>1435.879</ele>
        <time>2011-06-25T10:38:52Z</time>
      </trkpt>
      <trkpt lat="44.56905" lon="3.08522">
        <ele>1436.489</ele>
        <time>2011-06-25T10:39:02Z</time>
      </trkpt>
      <trkpt lat="44.56897" lon="3.08522">
        <ele>1437.245</ele>
        <time>2011-06-25T10:39:11Z</time>
      </trkpt>
      <trkpt lat="44.56887" lon="3.08523">
        <ele>1437.623</ele>
        <time>2011-06-25T10:39:21Z</time>
      </trkpt>
      <trkpt lat="44.56876" lon="3.08526">
        <ele>1437.502</ele>
        <time>2011-06-25T10:39:33Z</time>
      </trkpt>
      <trkpt lat="44.56866" lon="3.08528">
        <ele>1438.971</ele>
        <time>2011-06-25T10:39:44Z</time>
      </trkpt>
      <trkpt lat="44.56855" lon="3.0853">
        <ele>1439.158</ele>
        <time>2011-06-25T10:39:55Z</time>
      </trkpt>
      <trkpt lat="44.56844" lon="3.08527">
        <ele>1440.295</ele>
        <time>2011-06-25T10:40:06Z</time>
      </trkpt>
      <trkpt lat="44.56835" lon="3.0853">
        <ele>1441.49</ele>
        <time>2011-06-25T10:40:17Z</time>
      </trkpt>
      <trkpt lat="44.56827" lon="3.08525">
        <ele>1442.222</ele>
        <time>2011-06-25T10:40:40Z</time>
      </trkpt>
      <trkpt lat="44.56821" lon="3.08514">
        <ele>1444.15</ele>
        <time>2011-06-25T10:40:51Z</time>
      </trkpt>
      <trkpt lat="44.5682" lon="3.085">
        <ele>1445.27</ele>
        <time>2011-06-25T10:41:02Z</time>
      </trkpt>
      <trkpt lat="44.56821" lon="3.08486">
        <ele>1446.796</ele>
        <time>2011-06-25T10:41:17Z</time>
      </trkpt>
      <trkpt lat="44.56822" lon="3.08472">
        <ele>1447.452</ele>
        <time>2011-06-25T10:41:28Z</time>
      </trkpt>
      <trkpt lat="44.56817" lon="3.08461">
        <ele>1448.992</ele>
        <time>2011-06-25T10:41:38Z</time>
      </trkpt>
      <trkpt lat="44.56809" lon="3.08452">
        <ele>1450.469</ele>
        <time>2011-06-25T10:41:56Z</time>
      </trkpt>
      <trkpt lat="44.56802" lon="3.08447">
        <ele>1452.323</ele>
        <time>2011-06-25T10:42:16Z</time>
      </trkpt>
      <trkpt lat="44.56794" lon="3.08441">
        <ele>1452.964</ele>
        <time>2011-06-25T10:42:57Z</time>
      </trkpt>
      <trkpt lat="44.56787" lon="3.08433">
        <ele>1453.918</ele>
        <time>2011-06-25T10:43:08Z</time>
      </trkpt>
      <trkpt lat="44.56777" lon="3.08425">
        <ele>1454.665</ele>
        <time>2011-06-25T10:43:40Z</time>
      </trkpt>
      <trkpt lat="44.56766" lon="3.0842">
        <ele>1455</ele>
        <time>2011-06-25T10:43:53Z</time>
      </trkpt>
      <trkpt lat="44.56765" lon="3.08408">
        <ele>1455.166</ele>
        <time>2011-06-25T10:46:08Z</time>
      </trkpt>
      <trkpt lat="44.5676" lon="3.08395">
        <ele>1456.139</ele>
        <time>2011-06-25T10:46:17Z</time>
      </trkpt>
      <trkpt lat="44.56753" lon="3.08383">
        <ele>1458.096</ele>
        <time>2011-06-25T10:46:27Z</time>
      </trkpt>
      <trkpt lat="44.56748" lon="3.08371">
        <ele>1458.58</ele>
        <time>2011-06-25T10:46:37Z</time>
      </trkpt>
      <trkpt lat="44.56742" lon="3.08359">
        <ele>1458.736</ele>
        <time>2011-06-25T10:46:46Z</time>
      </trkpt>
      <trkpt lat="44.56737" lon="3.08348">
        <ele>1459.51</ele>
        <time>2011-06-25T10:46:55Z</time>
      </trkpt>
      <trkpt lat="44.56732" lon="3.08339">
        <ele>1460.201</ele>
        <time>2011-06-25T10:47:04Z</time>
      </trkpt>
      <trkpt lat="44.56727" lon="3.0833">
        <ele>1461.003</ele>
        <time>2011-06-25T10:47:14Z</time>
      </trkpt>
      <trkpt lat="44.56719" lon="3.08318">
        <ele>1461.904</ele>
        <time>2011-06-25T10:47:28Z</time>
      </trkpt>
      <trkpt lat="44.56715" lon="3.08306">
        <ele>1463.624</ele>
        <time>2011-06-25T10:47:38Z</time>
      </trkpt>
      <trkpt lat="44.56711" lon="3.08297">
        <ele>1464.323</ele>
        <time>2011-06-25T10:47:48Z</time>
      </trkpt>
      <trkpt lat="44.56705" lon="3.08284">
        <ele>1465.454</ele>
        <time>2011-06-25T10:47:58Z</time>
      </trkpt>
      <trkpt lat="44.56702" lon="3.08274">
        <ele>1466.424</ele>
        <time>2011-06-25T10:48:08Z</time>
      </trkpt>
      <trkpt lat="44.56697" lon="3.08262">
        <ele>1466.995</ele>
        <time>2011-06-25T10:48:19Z</time>
      </trkpt>
      <trkpt lat="44.56692" lon="3.08252">
        <ele>1467.823</ele>
        <time>2011-06-25T10:48:28Z</time>
      </trkpt>
      <trkpt lat="44.56686" lon="3.08241">
        <ele>1468.137</ele>
        <time>2011-06-25T10:48:37Z</time>
      </trkpt>
      <trkpt lat="44.56682" lon="3.0823">
        <ele>1468.392</ele>
        <time>2011-06-25T10:48:47Z</time>
      </trkpt>
      <trkpt lat="44.56689" lon="3.08228">
        <ele>1467.982</ele>
        <time>2011-06-25T10:50:44Z</time>
      </trkpt>
      <trkpt lat="44.56695" lon="3.08228">
        <ele>1468.009</ele>
        <time>2011-06-25T10:57:57Z</time>
      </trkpt>
      <trkpt lat="44.56701" lon="3.08215">
        <ele>1467.555</ele>
        <time>2011-06-25T10:58:19Z</time>
      </trkpt>
      <trkpt lat="44.567" lon="3.08201">
        <ele>1466.939</ele>
        <time>2011-06-25T10:58:28Z</time>
      </trkpt>
      <trkpt lat="44.56697" lon="3.08188">
        <ele>1466.358</ele>
        <time>2011-06-25T10:58:37Z</time>
      </trkpt>
      <trkpt lat="44.56695" lon="3.08175">
        <ele>1465.792</ele>
        <time>2011-06-25T10:58:46Z</time>
      </trkpt>
      <trkpt lat="44.56693" lon="3.08159">
        <ele>1465.752</ele>
        <time>2011-06-25T10:58:57Z</time>
      </trkpt>
      <trkpt lat="44.5669" lon="3.08144">
        <ele>1465.346</ele>
        <time>2011-06-25T10:59:07Z</time>
      </trkpt>
      <trkpt lat="44.56685" lon="3.08144">
        <ele>1465.015</ele>
        <time>2011-06-25T10:59:47Z</time>
      </trkpt>
      <trkpt lat="44.56687" lon="3.0813">
        <ele>1465.461</ele>
        <time>2011-06-25T10:59:56Z</time>
      </trkpt>
      <trkpt lat="44.56687" lon="3.08116">
        <ele>1465.658</ele>
        <time>2011-06-25T11:00:05Z</time>
      </trkpt>
      <trkpt lat="44.56687" lon="3.081">
        <ele>1465.077</ele>
        <time>2011-06-25T11:00:13Z</time>
      </trkpt>
      <trkpt lat="44.56688" lon="3.08087">
        <ele>1464.809</ele>
        <time>2011-06-25T11:00:21Z</time>
      </trkpt>
      <trkpt lat="44.56693" lon="3.08075">
        <ele>1465.106</ele>
        <time>2011-06-25T11:00:30Z</time>
      </trkpt>
      <trkpt lat="44.56697" lon="3.08061">
        <ele>1464.377</ele>
        <time>2011-06-25T11:00:39Z</time>
      </trkpt>
      <trkpt lat="44.56698" lon="3.08048">
        <ele>1464.468</ele>
        <time>2011-06-25T11:00:50Z</time>
      </trkpt>
      <trkpt lat="44.56702" lon="3.08035">
        <ele>1464.568</ele>
        <time>2011-06-25T11:00:58Z</time>
      </trkpt>
      <trkpt lat="44.56705" lon="3.08024">
        <ele>1464.327</ele>
        <time>2011-06-25T11:01:07Z</time>
      </trkpt>
      <trkpt lat="44.56711" lon="3.08013">
        <ele>1464.625</ele>
        <time>2011-06-25T11:01:16Z</time>
      </trkpt>
      <trkpt lat="44.56715" lon="3.08">
        <ele>1464.113</ele>
        <time>2011-06-25T11:01:25Z</time>
      </trkpt>
      <trkpt lat="44.56719" lon="3.07989">
        <ele>1463.05</ele>
        <time>2011-06-25T11:01:34Z</time>
      </trkpt>
      <trkpt lat="44.56724" lon="3.07978">
        <ele>1462.29</ele>
        <time>2011-06-25T11:01:43Z</time>
      </trkpt>
      <trkpt lat="44.56729" lon="3.07968">
        <ele>1460.689</ele>
        <time>2011-06-25T11:01:51Z</time>
      </trkpt>
      <trkpt lat="44.56734" lon="3.07957">
        <ele>1460.905</ele>
        <time>2011-06-25T11:01:59Z</time>
      </trkpt>
      <trkpt lat="44.56737" lon="3.07945">
        <ele>1460.435</ele>
        <time>2011-06-25T11:02:07Z</time>
      </trkpt>
      <trkpt lat="44.56743" lon="3.07933">
        <ele>1460.874</ele>
        <time>2011-06-25T11:02:15Z</time>
      </trkpt>
      <trkpt lat="44.56746" lon="3.07932">
        <ele>1460.109</ele>
        <time>2011-06-25T11:02:34Z</time>
      </trkpt>
      <trkpt lat="44.56744" lon="3.07932">
        <ele>1459.775</ele>
        <time>2011-06-25T11:02:48Z</time>
      </trkpt>
      <trkpt lat="44.56749" lon="3.07921">
        <ele>1459.753</ele>
        <time>2011-06-25T11:02:56Z</time>
      </trkpt>
      <trkpt lat="44.56754" lon="3.07908">
        <ele>1458.66</ele>
        <time>2011-06-25T11:03:04Z</time>
      </trkpt>
      <trkpt lat="44.56759" lon="3.07896">
        <ele>1458.268</ele>
        <time>2011-06-25T11:03:12Z</time>
      </trkpt>
      <trkpt lat="44.56766" lon="3.07885">
        <ele>1457.56</ele>
        <time>2011-06-25T11:03:19Z</time>
      </trkpt>
      <trkpt lat="44.56773" lon="3.07875">
        <ele>1456.414</ele>
        <time>2011-06-25T11:03:27Z</time>
      </trkpt>
      <trkpt lat="44.56777" lon="3.07863">
        <ele>1455.279</ele>
        <time>2011-06-25T11:03:36Z</time>
      </trkpt>
      <trkpt lat="44.56782" lon="3.0785">
        <ele>1456.039</ele>
        <time>2011-06-25T11:03:44Z</time>
      </trkpt>
      <trkpt lat="44.56787" lon="3.07841">
        <ele>1455.248</ele>
        <time>2011-06-25T11:03:53Z</time>
      </trkpt>
      <trkpt lat="44.56793" lon="3.07831">
        <ele>1454.638</ele>
        <time>2011-06-25T11:04:02Z</time>
      </trkpt>
      <trkpt lat="44.568" lon="3.0782">
        <ele>1453.142</ele>
        <time>2011-06-25T11:04:10Z</time>
      </trkpt>
      <trkpt lat="44.56804" lon="3.0781">
        <ele>1452.85</ele>
        <time>2011-06-25T11:04:19Z</time>
      </trkpt>
      <trkpt lat="44.56808" lon="3.07796">
        <ele>1453.035</ele>
        <time>2011-06-25T11:04:28Z</time>
      </trkpt>
      <trkpt lat="44.56811" lon="3.07784">
        <ele>1453.107</ele>
        <time>2011-06-25T11:04:44Z</time>
      </trkpt>
      <trkpt lat="44.56812" lon="3.0777">
        <ele>1452.047</ele>
        <time>2011-06-25T11:04:52Z</time>
      </trkpt>
      <trkpt lat="44.56812" lon="3.07756">
        <ele>1451.294</ele>
        <time>2011-06-25T11:05:00Z</time>
      </trkpt>
      <trkpt lat="44.56814" lon="3.07742">
        <ele>1451.353</ele>
        <time>2011-06-25T11:05:08Z</time>
      </trkpt>
      <trkpt lat="44.56816" lon="3.07731">
        <ele>1451.8</ele>
        <time>2011-06-25T11:05:16Z</time>
      </trkpt>
      <trkpt lat="44.56822" lon="3.07723">
        <ele>1450.622</ele>
        <time>2011-06-25T11:05:24Z</time>
      </trkpt>
      <trkpt lat="44.56829" lon="3.07712">
        <ele>1450.08</ele>
        <time>2011-06-25T11:05:33Z</time>
      </trkpt>
      <trkpt lat="44.56834" lon="3.077">
        <ele>1448.634</ele>
        <time>2011-06-25T11:05:43Z</time>
      </trkpt>
      <trkpt lat="44.56843" lon="3.07697">
        <ele>1447.375</ele>
        <time>2011-06-25T11:06:13Z</time>
      </trkpt>
      <trkpt lat="44.56836" lon="3.07698">
        <ele>1448.018</ele>
        <time>2011-06-25T11:06:44Z</time>
      </trkpt>
      <trkpt lat="44.56833" lon="3.07696">
        <ele>1448.516</ele>
        <time>2011-06-25T11:08:49Z</time>
      </trkpt>
      <trkpt lat="44.56832" lon="3.07683">
        <ele>1448.177</ele>
        <time>2011-06-25T11:09:03Z</time>
      </trkpt>
      <trkpt lat="44.56826" lon="3.07671">
        <ele>1448.636</ele>
        <time>2011-06-25T11:09:12Z</time>
      </trkpt>
      <trkpt lat="44.56826" lon="3.07656">
        <ele>1449.744</ele>
        <time>2011-06-25T11:09:21Z</time>
      </trkpt>
      <trkpt lat="44.56822" lon="3.07644">
        <ele>1450.831</ele>
        <time>2011-06-25T11:09:31Z</time>
      </trkpt>
      <trkpt lat="44.5682" lon="3.0763">
        <ele>1450.652</ele>
        <time>2011-06-25T11:09:41Z</time>
      </trkpt>
      <trkpt lat="44.56819" lon="3.07617">
        <ele>1450.205</ele>
        <time>2011-06-25T11:09:49Z</time>
      </trkpt>
      <trkpt lat="44.56817" lon="3.07604">
        <ele>1451.632</ele>
        <time>2011-06-25T11:09:59Z</time>
      </trkpt>
      <trkpt lat="44.56814" lon="3.07592">
        <ele>1452.735</ele>
        <time>2011-06-25T11:10:09Z</time>
      </trkpt>
      <trkpt lat="44.56806" lon="3.07584">
        <ele>1452.65</ele>
        <time>2011-06-25T11:10:19Z</time>
      </trkpt>
      <trkpt lat="44.56796" lon="3.07577">
        <ele>1452.925</ele>
        <time>2011-06-25T11:10:28Z</time>
      </trkpt>
      <trkpt lat="44.56788" lon="3.07573">
        <ele>1454.335</ele>
        <time>2011-06-25T11:10:37Z</time>
      </trkpt>
      <trkpt lat="44.56782" lon="3.07563">
        <ele>1453.95</ele>
        <time>2011-06-25T11:10:46Z</time>
      </trkpt>
      <trkpt lat="44.56775" lon="3.07553">
        <ele>1454.258</ele>
        <time>2011-06-25T11:10:55Z</time>
      </trkpt>
      <trkpt lat="44.56767" lon="3.07545">
        <ele>1454.16</ele>
        <time>2011-06-25T11:11:02Z</time>
      </trkpt>
      <trkpt lat="44.56762" lon="3.07534">
        <ele>1453.91</ele>
        <time>2011-06-25T11:11:10Z</time>
      </trkpt>
      <trkpt lat="44.56756" lon="3.07523">
        <ele>1452.911</ele>
        <time>2011-06-25T11:11:18Z</time>
      </trkpt>
      <trkpt lat="44.56753" lon="3.07513">
        <ele>1453.217</ele>
        <time>2011-06-25T11:11:26Z</time>
      </trkpt>
      <trkpt lat="44.5675" lon="3.075">
        <ele>1453.715</ele>
        <time>2011-06-25T11:11:33Z</time>
      </trkpt>
      <trkpt lat="44.56748" lon="3.07488">
        <ele>1454.32</ele>
        <time>2011-06-25T11:11:40Z</time>
      </trkpt>
      <trkpt lat="44.5675" lon="3.07474">
        <ele>1453.365</ele>
        <time>2011-06-25T11:11:48Z</time>
      </trkpt>
      <trkpt lat="44.56751" lon="3.07466">
        <ele>1453.694</ele>
        <time>2011-06-25T11:12:04Z</time>
      </trkpt>
      <trkpt lat="44.56755" lon="3.07453">
        <ele>1453.939</ele>
        <time>2011-06-25T11:12:13Z</time>
      </trkpt>
      <trkpt lat="44.56756" lon="3.07439">
        <ele>1451.724</ele>
        <time>2011-06-25T11:12:22Z</time>
      </trkpt>
      <trkpt lat="44.56758" lon="3.07422">
        <ele>1451.517</ele>
        <time>2011-06-25T11:12:32Z</time>
      </trkpt>
      <trkpt lat="44.56757" lon="3.07411">
        <ele>1450.337</ele>
        <time>2011-06-25T11:12:40Z</time>
      </trkpt>
      <trkpt lat="44.56757" lon="3.07396">
        <ele>1450.86</ele>
        <time>2011-06-25T11:12:51Z</time>
      </trkpt>
      <trkpt lat="44.56761" lon="3.07392">
        <ele>1450.548</ele>
        <time>2011-06-25T11:13:13Z</time>
      </trkpt>
      <trkpt lat="44.56756" lon="3.07379">
        <ele>1449.822</ele>
        <time>2011-06-25T11:13:27Z</time>
      </trkpt>
      <trkpt lat="44.56757" lon="3.07379">
        <ele>1449.533</ele>
        <time>2011-06-25T11:40:52Z</time>
      </trkpt>
      <trkpt lat="44.56758" lon="3.07379">
        <ele>1448.861</ele>
        <time>2011-06-25T12:26:37Z</time>
      </trkpt>
      <trkpt lat="44.5676" lon="3.0738">
        <ele>1447.386</ele>
        <time>2011-06-25T12:44:18Z</time>
      </trkpt>
      <trkpt lat="44.56762" lon="3.07366">
        <ele>1447.571</ele>
        <time>2011-06-25T12:44:44Z</time>
      </trkpt>
      <trkpt lat="44.56764" lon="3.07352">
        <ele>1447.148</ele>
        <time>2011-06-25T12:44:59Z</time>
      </trkpt>
      <trkpt lat="44.56767" lon="3.07339">
        <ele>1447.251</ele>
        <time>2011-06-25T12:45:09Z</time>
      </trkpt>
      <trkpt lat="44.5677" lon="3.07327">
        <ele>1445.607</ele>
        <time>2011-06-25T12:45:18Z</time>
      </trkpt>
      <trkpt lat="44.56773" lon="3.07316">
        <ele>1446.227</ele>
        <time>2011-06-25T12:45:27Z</time>
      </trkpt>
      <trkpt lat="44.56778" lon="3.07302">
        <ele>1445.438</ele>
        <time>2011-06-25T12:45:36Z</time>
      </trkpt>
      <trkpt lat="44.56782" lon="3.07292">
        <ele>1444.986</ele>
        <time>2011-06-25T12:45:46Z</time>
      </trkpt>
      <trkpt lat="44.5678" lon="3.0728">
        <ele>1443.764</ele>
        <time>2011-06-25T12:45:58Z</time>
      </trkpt>
      <trkpt lat="44.56782" lon="3.0728">
        <ele>1443.951</ele>
        <time>2011-06-25T12:46:17Z</time>
      </trkpt>
      <trkpt lat="44.56788" lon="3.0727">
        <ele>1444.337</ele>
        <time>2011-06-25T12:46:35Z</time>
      </trkpt>
      <trkpt lat="44.56798" lon="3.07261">
        <ele>1444.735</ele>
        <time>2011-06-25T12:46:44Z</time>
      </trkpt>
      <trkpt lat="44.56805" lon="3.07249">
        <ele>1444.822</ele>
        <time>2011-06-25T12:46:53Z</time>
      </trkpt>
      <trkpt lat="44.56809" lon="3.07237">
        <ele>1445.261</ele>
        <time>2011-06-25T12:47:01Z</time>
      </trkpt>
      <trkpt lat="44.56815" lon="3.07223">
        <ele>1445.224</ele>
        <time>2011-06-25T12:47:10Z</time>
      </trkpt>
      <trkpt lat="44.56822" lon="3.07214">
        <ele>1446.247</ele>
        <time>2011-06-25T12:47:19Z</time>
      </trkpt>
      <trkpt lat="44.56831" lon="3.07203">
        <ele>1446.098</ele>
        <time>2011-06-25T12:47:31Z</time>
      </trkpt>
      <trkpt lat="44.56839" lon="3.07195">
        <ele>1445.547</ele>
        <time>2011-06-25T12:47:38Z</time>
      </trkpt>
      <trkpt lat="44.56848" lon="3.0719">
        <ele>1445.544</ele>
        <time>2011-06-25T12:47:45Z</time>
      </trkpt>
      <trkpt lat="44.56857" lon="3.07185">
        <ele>1445.159</ele>
        <time>2011-06-25T12:47:53Z</time>
      </trkpt>
      <trkpt lat="44.56866" lon="3.07175">
        <ele>1444.849</ele>
        <time>2011-06-25T12:48:01Z</time>
      </trkpt>
      <trkpt lat="44.56874" lon="3.07169">
        <ele>1445.513</ele>
        <time>2011-06-25T12:48:09Z</time>
      </trkpt>
      <trkpt lat="44.56882" lon="3.07161">
        <ele>1444.942</ele>
        <time>2011-06-25T12:48:17Z</time>
      </trkpt>
      <trkpt lat="44.56886" lon="3.07149">
        <ele>1444.235</ele>
        <time>2011-06-25T12:48:26Z</time>
      </trkpt>
      <trkpt lat="44.56889" lon="3.07138">
        <ele>1444.428</ele>
        <time>2011-06-25T12:48:34Z</time>
      </trkpt>
      <trkpt lat="44.56894" lon="3.07123">
        <ele>1444.362</ele>
        <time>2011-06-25T12:48:44Z</time>
      </trkpt>
      <trkpt lat="44.56898" lon="3.07123">
        <ele>1443.957</ele>
        <time>2011-06-25T12:49:19Z</time>
      </trkpt>
      <trkpt lat="44.56908" lon="3.07115">
        <ele>1443.569</ele>
        <time>2011-06-25T12:49:27Z</time>
      </trkpt>
      <trkpt lat="44.56915" lon="3.0711">
        <ele>1443.191</ele>
        <time>2011-06-25T12:49:36Z</time>
      </trkpt>
      <trkpt lat="44.56924" lon="3.07101">
        <ele>1443.081</ele>
        <time>2011-06-25T12:49:44Z</time>
      </trkpt>
      <trkpt lat="44.56934" lon="3.07097">
        <ele>1442.508</ele>
        <time>2011-06-25T12:49:52Z</time>
      </trkpt>
      <trkpt lat="44.56942" lon="3.07091">
        <ele>1442.645</ele>
        <time>2011-06-25T12:50:00Z</time>
      </trkpt>
      <trkpt lat="44.56949" lon="3.07087">
        <ele>1441.797</ele>
        <time>2011-06-25T12:50:07Z</time>
      </trkpt>
      <trkpt lat="44.56958" lon="3.07083">
        <ele>1440.902</ele>
        <time>2011-06-25T12:50:15Z</time>
      </trkpt>
      <trkpt lat="44.56968" lon="3.0708">
        <ele>1440.55</ele>
        <time>2011-06-25T12:50:24Z</time>
      </trkpt>
      <trkpt lat="44.56976" lon="3.07076">
        <ele>1441.113</ele>
        <time>2011-06-25T12:50:35Z</time>
      </trkpt>
      <trkpt lat="44.56985" lon="3.07074">
        <ele>1441.832</ele>
        <time>2011-06-25T12:50:44Z</time>
      </trkpt>
      <trkpt lat="44.56995" lon="3.07068">
        <ele>1443.225</ele>
        <time>2011-06-25T12:50:53Z</time>
      </trkpt>
      <trkpt lat="44.57003" lon="3.07059">
        <ele>1443.77</ele>
        <time>2011-06-25T12:51:03Z</time>
      </trkpt>
      <trkpt lat="44.57009" lon="3.07052">
        <ele>1444.491</ele>
        <time>2011-06-25T12:51:12Z</time>
      </trkpt>
      <trkpt lat="44.57014" lon="3.07041">
        <ele>1443.985</ele>
        <time>2011-06-25T12:51:21Z</time>
      </trkpt>
      <trkpt lat="44.57021" lon="3.07029">
        <ele>1443.895</ele>
        <time>2011-06-25T12:51:30Z</time>
      </trkpt>
      <trkpt lat="44.57031" lon="3.07019">
        <ele>1443.356</ele>
        <time>2011-06-25T12:51:40Z</time>
      </trkpt>
      <trkpt lat="44.57042" lon="3.0701">
        <ele>1442.814</ele>
        <time>2011-06-25T12:51:50Z</time>
      </trkpt>
      <trkpt lat="44.57055" lon="3.07005">
        <ele>1442.026</ele>
        <time>2011-06-25T12:52:06Z</time>
      </trkpt>
      <trkpt lat="44.57073" lon="3.07">
        <ele>1441.149</ele>
        <time>2011-06-25T12:52:20Z</time>
      </trkpt>
      <trkpt lat="44.57084" lon="3.06993">
        <ele>1440.834</ele>
        <time>2011-06-25T12:52:31Z</time>
      </trkpt>
      <trkpt lat="44.57095" lon="3.06985">
        <ele>1439.106</ele>
        <time>2011-06-25T12:52:42Z</time>
      </trkpt>
      <trkpt lat="44.57105" lon="3.06981">
        <ele>1437.759</ele>
        <time>2011-06-25T12:52:55Z</time>
      </trkpt>
      <trkpt lat="44.57118" lon="3.06978">
        <ele>1436.564</ele>
        <time>2011-06-25T12:53:11Z</time>
      </trkpt>
      <trkpt lat="44.57133" lon="3.06974">
        <ele>1435.401</ele>
        <time>2011-06-25T12:53:24Z</time>
      </trkpt>
      <trkpt lat="44.57146" lon="3.06969">
        <ele>1435.581</ele>
        <time>2011-06-25T12:53:35Z</time>
      </trkpt>
      <trkpt lat="44.57158" lon="3.06961">
        <ele>1435.204</ele>
        <time>2011-06-25T12:53:45Z</time>
      </trkpt>
      <trkpt lat="44.57169" lon="3.06955">
        <ele>1435.905</ele>
        <time>2011-06-25T12:53:53Z</time>
      </trkpt>
      <trkpt lat="44.57176" lon="3.06946">
        <ele>1434.677</ele>
        <time>2011-06-25T12:54:03Z</time>
      </trkpt>
      <trkpt lat="44.57186" lon="3.0694">
        <ele>1434.504</ele>
        <time>2011-06-25T12:54:13Z</time>
      </trkpt>
      <trkpt lat="44.57198" lon="3.06933">
        <ele>1433.999</ele>
        <time>2011-06-25T12:54:23Z</time>
      </trkpt>
      <trkpt lat="44.57205" lon="3.0692">
        <ele>1433.042</ele>
        <time>2011-06-25T12:54:34Z</time>
      </trkpt>
      <trkpt lat="44.57213" lon="3.06911">
        <ele>1432.1</ele>
        <time>2011-06-25T12:54:44Z</time>
      </trkpt>
      <trkpt lat="44.57225" lon="3.06909">
        <ele>1429.926</ele>
        <time>2011-06-25T12:54:55Z</time>
      </trkpt>
      <trkpt lat="44.57236" lon="3.06908">
        <ele>1427.823</ele>
        <time>2011-06-25T12:55:10Z</time>
      </trkpt>
      <trkpt lat="44.57245" lon="3.06901">
        <ele>1426.279</ele>
        <time>2011-06-25T12:55:26Z</time>
      </trkpt>
      <trkpt lat="44.5726" lon="3.06888">
        <ele>1424.426</ele>
        <time>2011-06-25T12:55:40Z</time>
      </trkpt>
      <trkpt lat="44.57268" lon="3.06882">
        <ele>1422.077</ele>
        <time>2011-06-25T12:55:52Z</time>
      </trkpt>
      <trkpt lat="44.57283" lon="3.0688">
        <ele>1420.693</ele>
        <time>2011-06-25T12:56:08Z</time>
      </trkpt>
      <trkpt lat="44.57298" lon="3.06875">
        <ele>1419.646</ele>
        <time>2011-06-25T12:56:23Z</time>
      </trkpt>
      <trkpt lat="44.57315" lon="3.06865">
        <ele>1418.733</ele>
        <time>2011-06-25T12:56:39Z</time>
      </trkpt>
      <trkpt lat="44.57337" lon="3.06855">
        <ele>1418.793</ele>
        <time>2011-06-25T12:57:00Z</time>
      </trkpt>
      <trkpt lat="44.57354" lon="3.06848">
        <ele>1417.602</ele>
        <time>2011-06-25T12:57:14Z</time>
      </trkpt>
      <trkpt lat="44.57373" lon="3.06839">
        <ele>1414.96</ele>
        <time>2011-06-25T12:57:40Z</time>
      </trkpt>
      <trkpt lat="44.57384" lon="3.06824">
        <ele>1412.81</ele>
        <time>2011-06-25T12:57:53Z</time>
      </trkpt>
      <trkpt lat="44.57391" lon="3.06806">
        <ele>1412.83</ele>
        <time>2011-06-25T12:58:06Z</time>
      </trkpt>
      <trkpt lat="44.57396" lon="3.06788">
        <ele>1413.046</ele>
        <time>2011-06-25T12:58:20Z</time>
      </trkpt>
      <trkpt lat="44.57401" lon="3.06769">
        <ele>1411.914</ele>
        <time>2011-06-25T12:58:34Z</time>
      </trkpt>
      <trkpt lat="44.57407" lon="3.06752">
        <ele>1410.607</ele>
        <time>2011-06-25T12:58:48Z</time>
      </trkpt>
      <trkpt lat="44.57416" lon="3.06737">
        <ele>1408.278</ele>
        <time>2011-06-25T12:59:02Z</time>
      </trkpt>
      <trkpt lat="44.5743" lon="3.06727">
        <ele>1407.32</ele>
        <time>2011-06-25T12:59:15Z</time>
      </trkpt>
      <trkpt lat="44.57439" lon="3.06722">
        <ele>1407.14</ele>
        <time>2011-06-25T12:59:24Z</time>
      </trkpt>
      <trkpt lat="44.57447" lon="3.06715">
        <ele>1406.447</ele>
        <time>2011-06-25T12:59:33Z</time>
      </trkpt>
      <trkpt lat="44.5747" lon="3.0671">
        <ele>1406.007</ele>
        <time>2011-06-25T12:59:54Z</time>
      </trkpt>
      <trkpt lat="44.57484" lon="3.06696">
        <ele>1406.158</ele>
        <time>2011-06-25T13:00:07Z</time>
      </trkpt>
      <trkpt lat="44.57493" lon="3.0669">
        <ele>1405.632</ele>
        <time>2011-06-25T13:00:21Z</time>
      </trkpt>
      <trkpt lat="44.57507" lon="3.06687">
        <ele>1404.282</ele>
        <time>2011-06-25T13:00:31Z</time>
      </trkpt>
      <trkpt lat="44.57517" lon="3.06677">
        <ele>1402.854</ele>
        <time>2011-06-25T13:00:42Z</time>
      </trkpt>
      <trkpt lat="44.57527" lon="3.06666">
        <ele>1401.488</ele>
        <time>2011-06-25T13:00:54Z</time>
      </trkpt>
      <trkpt lat="44.57537" lon="3.06662">
        <ele>1399.096</ele>
        <time>2011-06-25T13:01:07Z</time>
      </trkpt>
      <trkpt lat="44.5754" lon="3.06664">
        <ele>1398.64</ele>
        <time>2011-06-25T13:02:29Z</time>
      </trkpt>
      <trkpt lat="44.57549" lon="3.06656">
        <ele>1397.781</ele>
        <time>2011-06-25T13:02:40Z</time>
      </trkpt>
      <trkpt lat="44.57557" lon="3.06644">
        <ele>1396.491</ele>
        <time>2011-06-25T13:02:52Z</time>
      </trkpt>
      <trkpt lat="44.57568" lon="3.06639">
        <ele>1395.8</ele>
        <time>2011-06-25T13:03:02Z</time>
      </trkpt>
      <trkpt lat="44.57568" lon="3.06636">
        <ele>1396.782</ele>
        <time>2011-06-25T13:04:00Z</time>
      </trkpt>
      <trkpt lat="44.57579" lon="3.06628">
        <ele>1395.428</ele>
        <time>2011-06-25T13:04:18Z</time>
      </trkpt>
      <trkpt lat="44.57588" lon="3.0662">
        <ele>1394.513</ele>
        <time>2011-06-25T13:04:28Z</time>
      </trkpt>
      <trkpt lat="44.57599" lon="3.06612">
        <ele>1394.17</ele>
        <time>2011-06-25T13:04:37Z</time>
      </trkpt>
      <trkpt lat="44.57608" lon="3.06604">
        <ele>1393.231</ele>
        <time>2011-06-25T13:04:46Z</time>
      </trkpt>
      <trkpt lat="44.57615" lon="3.06596">
        <ele>1392.884</ele>
        <time>2011-06-25T13:04:54Z</time>
      </trkpt>
      <trkpt lat="44.57623" lon="3.06589">
        <ele>1391.946</ele>
        <time>2011-06-25T13:05:02Z</time>
      </trkpt>
      <trkpt lat="44.57631" lon="3.06581">
        <ele>1391.897</ele>
        <time>2011-06-25T13:05:11Z</time>
      </trkpt>
      <trkpt lat="44.57638" lon="3.06591">
        <ele>1391.3</ele>
        <time>2011-06-25T13:05:20Z</time>
      </trkpt>
      <trkpt lat="44.57649" lon="3.06586">
        <ele>1391.369</ele>
        <time>2011-06-25T13:05:30Z</time>
      </trkpt>
      <trkpt lat="44.57657" lon="3.06582">
        <ele>1388.252</ele>
        <time>2011-06-25T13:05:56Z</time>
      </trkpt>
      <trkpt lat="44.57664" lon="3.06575">
        <ele>1388.563</ele>
        <time>2011-06-25T13:06:06Z</time>
      </trkpt>
      <trkpt lat="44.57673" lon="3.06565">
        <ele>1388.796</ele>
        <time>2011-06-25T13:06:15Z</time>
      </trkpt>
      <trkpt lat="44.5768" lon="3.06557">
        <ele>1388.447</ele>
        <time>2011-06-25T13:06:24Z</time>
      </trkpt>
      <trkpt lat="44.57689" lon="3.06547">
        <ele>1388.071</ele>
        <time>2011-06-25T13:06:33Z</time>
      </trkpt>
      <trkpt lat="44.57698" lon="3.06539">
        <ele>1387.952</ele>
        <time>2011-06-25T13:06:51Z</time>
      </trkpt>
      <trkpt lat="44.57704" lon="3.06531">
        <ele>1387.273</ele>
        <time>2011-06-25T13:07:01Z</time>
      </trkpt>
      <trkpt lat="44.5771" lon="3.06522">
        <ele>1387.09</ele>
        <time>2011-06-25T13:07:10Z</time>
      </trkpt>
      <trkpt lat="44.57717" lon="3.06512">
        <ele>1386.406</ele>
        <time>2011-06-25T13:07:18Z</time>
      </trkpt>
      <trkpt lat="44.57726" lon="3.06505">
        <ele>1385.988</ele>
        <time>2011-06-25T13:07:27Z</time>
      </trkpt>
      <trkpt lat="44.57737" lon="3.06496">
        <ele>1385.453</ele>
        <time>2011-06-25T13:07:38Z</time>
      </trkpt>
      <trkpt lat="44.57748" lon="3.06481">
        <ele>1383.978</ele>
        <time>2011-06-25T13:07:50Z</time>
      </trkpt>
      <trkpt lat="44.57755" lon="3.06473">
        <ele>1382.843</ele>
        <time>2011-06-25T13:07:58Z</time>
      </trkpt>
      <trkpt lat="44.57764" lon="3.06463">
        <ele>1382.373</ele>
        <time>2011-06-25T13:08:07Z</time>
      </trkpt>
      <trkpt lat="44.5777" lon="3.06455">
        <ele>1381.438</ele>
        <time>2011-06-25T13:08:15Z</time>
      </trkpt>
      <trkpt lat="44.57776" lon="3.06447">
        <ele>1380.739</ele>
        <time>2011-06-25T13:08:23Z</time>
      </trkpt>
      <trkpt lat="44.57782" lon="3.06438">
        <ele>1380.627</ele>
        <time>2011-06-25T13:08:31Z</time>
      </trkpt>
      <trkpt lat="44.57791" lon="3.06436">
        <ele>1379.265</ele>
        <time>2011-06-25T13:08:40Z</time>
      </trkpt>
      <trkpt lat="44.57798" lon="3.06421">
        <ele>1379.192</ele>
        <time>2011-06-25T13:08:52Z</time>
      </trkpt>
      <trkpt lat="44.57805" lon="3.0641">
        <ele>1376.178</ele>
        <time>2011-06-25T13:09:01Z</time>
      </trkpt>
      <trkpt lat="44.57813" lon="3.06403">
        <ele>1376.24</ele>
        <time>2011-06-25T13:09:11Z</time>
      </trkpt>
      <trkpt lat="44.57814" lon="3.06402">
        <ele>1374.574</ele>
        <time>2011-06-25T13:09:15Z</time>
      </trkpt>
    </trkseg>
  </trk>
  <trk>
    <name><![CDATA[ACTIVE LOG152051]]></name>
    <trkseg>
      <trkpt lat="44.60314" lon="3.02903">
        <ele>1328.504</ele>
        <time>2011-06-25T13:20:50Z</time>
      </trkpt>
      <trkpt lat="44.60314" lon="3.02876">
        <ele>1329.677</ele>
        <time>2011-06-25T13:24:45Z</time>
      </trkpt>
      <trkpt lat="44.60312" lon="3.02856">
        <ele>1330.893</ele>
        <time>2011-06-25T13:24:57Z</time>
      </trkpt>
      <trkpt lat="44.603" lon="3.02835">
        <ele>1331.717</ele>
        <time>2011-06-25T13:25:08Z</time>
      </trkpt>
      <trkpt lat="44.60299" lon="3.02823">
        <ele>1332.598</ele>
        <time>2011-06-25T13:25:16Z</time>
      </trkpt>
      <trkpt lat="44.60298" lon="3.02807">
        <ele>1332.864</ele>
        <time>2011-06-25T13:25:30Z</time>
      </trkpt>
      <trkpt lat="44.60294" lon="3.02792">
        <ele>1334.158</ele>
        <time>2011-06-25T13:25:41Z</time>
      </trkpt>
      <trkpt lat="44.60291" lon="3.02777">
        <ele>1334.751</ele>
        <time>2011-06-25T13:25:50Z</time>
      </trkpt>
      <trkpt lat="44.60282" lon="3.02767">
        <ele>1336.367</ele>
        <time>2011-06-25T13:26:00Z</time>
      </trkpt>
      <trkpt lat="44.60279" lon="3.02758">
        <ele>1334.944</ele>
        <time>2011-06-25T13:26:27Z</time>
      </trkpt>
      <trkpt lat="44.60271" lon="3.02758">
        <ele>1335.179</ele>
        <time>2011-06-25T13:26:46Z</time>
      </trkpt>
      <trkpt lat="44.6026" lon="3.02761">
        <ele>1334.831</ele>
        <time>2011-06-25T13:26:54Z</time>
      </trkpt>
      <trkpt lat="44.60249" lon="3.02762">
        <ele>1333.88</ele>
        <time>2011-06-25T13:27:02Z</time>
      </trkpt>
      <trkpt lat="44.60239" lon="3.02759">
        <ele>1333.582</ele>
        <time>2011-06-25T13:27:10Z</time>
      </trkpt>
      <trkpt lat="44.6023" lon="3.02754">
        <ele>1333.768</ele>
        <time>2011-06-25T13:27:19Z</time>
      </trkpt>
      <trkpt lat="44.60221" lon="3.02745">
        <ele>1333.409</ele>
        <time>2011-06-25T13:27:28Z</time>
      </trkpt>
      <trkpt lat="44.60213" lon="3.02736">
        <ele>1333.291</ele>
        <time>2011-06-25T13:27:36Z</time>
      </trkpt>
      <trkpt lat="44.60205" lon="3.02727">
        <ele>1333.169</ele>
        <time>2011-06-25T13:27:44Z</time>
      </trkpt>
      <trkpt lat="44.60197" lon="3.02718">
        <ele>1332.227</ele>
        <time>2011-06-25T13:27:52Z</time>
      </trkpt>
      <trkpt lat="44.60189" lon="3.0271">
        <ele>1332.824</ele>
        <time>2011-06-25T13:28:01Z</time>
      </trkpt>
      <trkpt lat="44.60181" lon="3.02704">
        <ele>1332.999</ele>
        <time>2011-06-25T13:28:10Z</time>
      </trkpt>
      <trkpt lat="44.60172" lon="3.02697">
        <ele>1333.036</ele>
        <time>2011-06-25T13:28:19Z</time>
      </trkpt>
      <trkpt lat="44.60164" lon="3.0269">
        <ele>1333.19</ele>
        <time>2011-06-25T13:28:28Z</time>
      </trkpt>
      <trkpt lat="44.60155" lon="3.02682">
        <ele>1333.55</ele>
        <time>2011-06-25T13:28:37Z</time>
      </trkpt>
      <trkpt lat="44.60146" lon="3.02675">
        <ele>1333.146</ele>
        <time>2011-06-25T13:28:47Z</time>
      </trkpt>
      <trkpt lat="44.60137" lon="3.02666">
        <ele>1333.438</ele>
        <time>2011-06-25T13:28:56Z</time>
      </trkpt>
      <trkpt lat="44.60127" lon="3.02659">
        <ele>1333.094</ele>
        <time>2011-06-25T13:29:04Z</time>
      </trkpt>
      <trkpt lat="44.60119" lon="3.02651">
        <ele>1333.483</ele>
        <time>2011-06-25T13:29:12Z</time>
      </trkpt>
      <trkpt lat="44.60108" lon="3.02647">
        <ele>1333.528</ele>
        <time>2011-06-25T13:29:20Z</time>
      </trkpt>
      <trkpt lat="44.60098" lon="3.02646">
        <ele>1333.421</ele>
        <time>2011-06-25T13:29:27Z</time>
      </trkpt>
      <trkpt lat="44.60088" lon="3.02649">
        <ele>1333.809</ele>
        <time>2011-06-25T13:29:35Z</time>
      </trkpt>
      <trkpt lat="44.60078" lon="3.02653">
        <ele>1333.66</ele>
        <time>2011-06-25T13:29:43Z</time>
      </trkpt>
      <trkpt lat="44.60068" lon="3.02656">
        <ele>1333.973</ele>
        <time>2011-06-25T13:29:51Z</time>
      </trkpt>
      <trkpt lat="44.60058" lon="3.02658">
        <ele>1334.018</ele>
        <time>2011-06-25T13:29:59Z</time>
      </trkpt>
      <trkpt lat="44.60048" lon="3.02657">
        <ele>1333.91</ele>
        <time>2011-06-25T13:30:07Z</time>
      </trkpt>
      <trkpt lat="44.60038" lon="3.02656">
        <ele>1334.036</ele>
        <time>2011-06-25T13:30:15Z</time>
      </trkpt>
      <trkpt lat="44.6003" lon="3.02651">
        <ele>1335.073</ele>
        <time>2011-06-25T13:30:23Z</time>
      </trkpt>
      <trkpt lat="44.60019" lon="3.02646">
        <ele>1334.354</ele>
        <time>2011-06-25T13:30:31Z</time>
      </trkpt>
      <trkpt lat="44.6001" lon="3.02641">
        <ele>1334.752</ele>
        <time>2011-06-25T13:30:39Z</time>
      </trkpt>
      <trkpt lat="44.60001" lon="3.02637">
        <ele>1335.114</ele>
        <time>2011-06-25T13:30:47Z</time>
      </trkpt>
      <trkpt lat="44.59991" lon="3.02631">
        <ele>1334.476</ele>
        <time>2011-06-25T13:30:54Z</time>
      </trkpt>
      <trkpt lat="44.59982" lon="3.02628">
        <ele>1334.577</ele>
        <time>2011-06-25T13:31:02Z</time>
      </trkpt>
      <trkpt lat="44.59972" lon="3.02624">
        <ele>1334.459</ele>
        <time>2011-06-25T13:31:20Z</time>
      </trkpt>
      <trkpt lat="44.59964" lon="3.02618">
        <ele>1333.928</ele>
        <time>2011-06-25T13:31:28Z</time>
      </trkpt>
      <trkpt lat="44.59955" lon="3.0261">
        <ele>1334.023</ele>
        <time>2011-06-25T13:31:37Z</time>
      </trkpt>
      <trkpt lat="44.59948" lon="3.02604">
        <ele>1333.18</ele>
        <time>2011-06-25T13:31:45Z</time>
      </trkpt>
      <trkpt lat="44.5994" lon="3.02596">
        <ele>1332.749</ele>
        <time>2011-06-25T13:31:53Z</time>
      </trkpt>
      <trkpt lat="44.59932" lon="3.02588">
        <ele>1331.28</ele>
        <time>2011-06-25T13:32:01Z</time>
      </trkpt>
      <trkpt lat="44.59923" lon="3.0258">
        <ele>1330.705</ele>
        <time>2011-06-25T13:32:10Z</time>
      </trkpt>
      <trkpt lat="44.59912" lon="3.02569">
        <ele>1330.693</ele>
        <time>2011-06-25T13:32:18Z</time>
      </trkpt>
      <trkpt lat="44.59905" lon="3.02561">
        <ele>1330.197</ele>
        <time>2011-06-25T13:32:27Z</time>
      </trkpt>
      <trkpt lat="44.599" lon="3.02557">
        <ele>1328.287</ele>
        <time>2011-06-25T13:32:46Z</time>
      </trkpt>
      <trkpt lat="44.59908" lon="3.0257">
        <ele>1329.129</ele>
        <time>2011-06-25T13:32:59Z</time>
      </trkpt>
      <trkpt lat="44.59903" lon="3.02576">
        <ele>1331.451</ele>
        <time>2011-06-25T13:33:46Z</time>
      </trkpt>
      <trkpt lat="44.59892" lon="3.02582">
        <ele>1330.999</ele>
        <time>2011-06-25T13:33:55Z</time>
      </trkpt>
      <trkpt lat="44.59882" lon="3.02584">
        <ele>1331.497</ele>
        <time>2011-06-25T13:34:04Z</time>
      </trkpt>
      <trkpt lat="44.59872" lon="3.02591">
        <ele>1331.462</ele>
        <time>2011-06-25T13:34:14Z</time>
      </trkpt>
      <trkpt lat="44.59862" lon="3.0259">
        <ele>1332.168</ele>
        <time>2011-06-25T13:34:24Z</time>
      </trkpt>
      <trkpt lat="44.59852" lon="3.02588">
        <ele>1333.293</ele>
        <time>2011-06-25T13:34:34Z</time>
      </trkpt>
      <trkpt lat="44.59842" lon="3.02591">
        <ele>1334.596</ele>
        <time>2011-06-25T13:34:43Z</time>
      </trkpt>
      <trkpt lat="44.59834" lon="3.02594">
        <ele>1334.681</ele>
        <time>2011-06-25T13:34:53Z</time>
      </trkpt>
      <trkpt lat="44.5983" lon="3.02584">
        <ele>1335.394</ele>
        <time>2011-06-25T13:35:03Z</time>
      </trkpt>
      <trkpt lat="44.59826" lon="3.02574">
        <ele>1336.214</ele>
        <time>2011-06-25T13:35:13Z</time>
      </trkpt>
      <trkpt lat="44.59816" lon="3.02568">
        <ele>1337.908</ele>
        <time>2011-06-25T13:35:23Z</time>
      </trkpt>
      <trkpt lat="44.59802" lon="3.02562">
        <ele>1338.399</ele>
        <time>2011-06-25T13:35:33Z</time>
      </trkpt>
      <trkpt lat="44.59791" lon="3.02563">
        <ele>1340.849</ele>
        <time>2011-06-25T13:35:45Z</time>
      </trkpt>
      <trkpt lat="44.59781" lon="3.02562">
        <ele>1342.809</ele>
        <time>2011-06-25T13:35:55Z</time>
      </trkpt>
      <trkpt lat="44.59769" lon="3.02563">
        <ele>1343.285</ele>
        <time>2011-06-25T13:36:04Z</time>
      </trkpt>
      <trkpt lat="44.5976" lon="3.02563">
        <ele>1343.914</ele>
        <time>2011-06-25T13:36:14Z</time>
      </trkpt>
      <trkpt lat="44.59753" lon="3.02561">
        <ele>1344.403</ele>
        <time>2011-06-25T13:36:23Z</time>
      </trkpt>
      <trkpt lat="44.59746" lon="3.02556">
        <ele>1344.677</ele>
        <time>2011-06-25T13:36:34Z</time>
      </trkpt>
      <trkpt lat="44.59742" lon="3.02544">
        <ele>1344.825</ele>
        <time>2011-06-25T13:36:43Z</time>
      </trkpt>
      <trkpt lat="44.59737" lon="3.02531">
        <ele>1343.755</ele>
        <time>2011-06-25T13:36:52Z</time>
      </trkpt>
      <trkpt lat="44.59731" lon="3.02518">
        <ele>1345.325</ele>
        <time>2011-06-25T13:37:01Z</time>
      </trkpt>
      <trkpt lat="44.59728" lon="3.02507">
        <ele>1345.782</ele>
        <time>2011-06-25T13:37:19Z</time>
      </trkpt>
      <trkpt lat="44.59722" lon="3.02497">
        <ele>1345.339</ele>
        <time>2011-06-25T13:37:27Z</time>
      </trkpt>
      <trkpt lat="44.59718" lon="3.02486">
        <ele>1344.636</ele>
        <time>2011-06-25T13:37:36Z</time>
      </trkpt>
      <trkpt lat="44.59713" lon="3.02474">
        <ele>1345.239</ele>
        <time>2011-06-25T13:37:44Z</time>
      </trkpt>
      <trkpt lat="44.59707" lon="3.02464">
        <ele>1345.5</ele>
        <time>2011-06-25T13:37:52Z</time>
      </trkpt>
      <trkpt lat="44.59701" lon="3.02454">
        <ele>1346.026</ele>
        <time>2011-06-25T13:38:01Z</time>
      </trkpt>
      <trkpt lat="44.59692" lon="3.02445">
        <ele>1346.121</ele>
        <time>2011-06-25T13:38:11Z</time>
      </trkpt>
      <trkpt lat="44.59682" lon="3.0244">
        <ele>1345.052</ele>
        <time>2011-06-25T13:38:19Z</time>
      </trkpt>
      <trkpt lat="44.59673" lon="3.02434">
        <ele>1344.59</ele>
        <time>2011-06-25T13:38:28Z</time>
      </trkpt>
      <trkpt lat="44.59664" lon="3.02429">
        <ele>1344.436</ele>
        <time>2011-06-25T13:38:36Z</time>
      </trkpt>
      <trkpt lat="44.59653" lon="3.02424">
        <ele>1343.096</ele>
        <time>2011-06-25T13:38:45Z</time>
      </trkpt>
      <trkpt lat="44.59642" lon="3.0242">
        <ele>1342.789</ele>
        <time>2011-06-25T13:38:53Z</time>
      </trkpt>
      <trkpt lat="44.59634" lon="3.02414">
        <ele>1342.774</ele>
        <time>2011-06-25T13:39:01Z</time>
      </trkpt>
      <trkpt lat="44.59624" lon="3.02407">
        <ele>1342.348</ele>
        <time>2011-06-25T13:39:21Z</time>
      </trkpt>
      <trkpt lat="44.59614" lon="3.02399">
        <ele>1342.637</ele>
        <time>2011-06-25T13:39:31Z</time>
      </trkpt>
      <trkpt lat="44.59603" lon="3.02393">
        <ele>1342.794</ele>
        <time>2011-06-25T13:39:40Z</time>
      </trkpt>
      <trkpt lat="44.59593" lon="3.0239">
        <ele>1342.943</ele>
        <time>2011-06-25T13:39:50Z</time>
      </trkpt>
      <trkpt lat="44.5958" lon="3.02383">
        <ele>1344.052</ele>
        <time>2011-06-25T13:40:03Z</time>
      </trkpt>
      <trkpt lat="44.59564" lon="3.02379">
        <ele>1344.827</ele>
        <time>2011-06-25T13:40:22Z</time>
      </trkpt>
      <trkpt lat="44.59554" lon="3.02372">
        <ele>1344.424</ele>
        <time>2011-06-25T13:40:41Z</time>
      </trkpt>
      <trkpt lat="44.59543" lon="3.02366">
        <ele>1343.485</ele>
        <time>2011-06-25T13:40:51Z</time>
      </trkpt>
      <trkpt lat="44.59531" lon="3.02359">
        <ele>1343.072</ele>
        <time>2011-06-25T13:41:00Z</time>
      </trkpt>
      <trkpt lat="44.59521" lon="3.02354">
        <ele>1342.811</ele>
        <time>2011-06-25T13:41:08Z</time>
      </trkpt>
      <trkpt lat="44.59509" lon="3.02351">
        <ele>1342.31</ele>
        <time>2011-06-25T13:41:16Z</time>
      </trkpt>
      <trkpt lat="44.59497" lon="3.02348">
        <ele>1341.791</ele>
        <time>2011-06-25T13:41:27Z</time>
      </trkpt>
      <trkpt lat="44.59484" lon="3.02344">
        <ele>1341.49</ele>
        <time>2011-06-25T13:41:38Z</time>
      </trkpt>
      <trkpt lat="44.59472" lon="3.02336">
        <ele>1340.658</ele>
        <time>2011-06-25T13:41:48Z</time>
      </trkpt>
      <trkpt lat="44.59459" lon="3.02325">
        <ele>1340.734</ele>
        <time>2011-06-25T13:41:59Z</time>
      </trkpt>
      <trkpt lat="44.5945" lon="3.02316">
        <ele>1341.355</ele>
        <time>2011-06-25T13:42:11Z</time>
      </trkpt>
      <trkpt lat="44.59439" lon="3.02308">
        <ele>1340.633</ele>
        <time>2011-06-25T13:42:24Z</time>
      </trkpt>
      <trkpt lat="44.59427" lon="3.02303">
        <ele>1341.11</ele>
        <time>2011-06-25T13:42:36Z</time>
      </trkpt>
      <trkpt lat="44.59415" lon="3.02296">
        <ele>1341.43</ele>
        <time>2011-06-25T13:42:45Z</time>
      </trkpt>
      <trkpt lat="44.59403" lon="3.02286">
        <ele>1340.846</ele>
        <time>2011-06-25T13:42:55Z</time>
      </trkpt>
      <trkpt lat="44.5939" lon="3.02279">
        <ele>1341.103</ele>
        <time>2011-06-25T13:43:05Z</time>
      </trkpt>
      <trkpt lat="44.59378" lon="3.02267">
        <ele>1341.441</ele>
        <time>2011-06-25T13:43:17Z</time>
      </trkpt>
      <trkpt lat="44.59367" lon="3.02257">
        <ele>1341.365</ele>
        <time>2011-06-25T13:43:29Z</time>
      </trkpt>
      <trkpt lat="44.59357" lon="3.02246">
        <ele>1341.575</ele>
        <time>2011-06-25T13:43:43Z</time>
      </trkpt>
      <trkpt lat="44.59334" lon="3.02231">
        <ele>1341.5</ele>
        <time>2011-06-25T13:43:58Z</time>
      </trkpt>
      <trkpt lat="44.59319" lon="3.02223">
        <ele>1342.104</ele>
        <time>2011-06-25T13:44:13Z</time>
      </trkpt>
      <trkpt lat="44.59314" lon="3.02214">
        <ele>1341.874</ele>
        <time>2011-06-25T13:44:38Z</time>
      </trkpt>
      <trkpt lat="44.59306" lon="3.02206">
        <ele>1341.706</ele>
        <time>2011-06-25T13:45:13Z</time>
      </trkpt>
      <trkpt lat="44.59295" lon="3.02197">
        <ele>1341.801</ele>
        <time>2011-06-25T13:45:29Z</time>
      </trkpt>
      <trkpt lat="44.5928" lon="3.0219">
        <ele>1341.756</ele>
        <time>2011-06-25T13:45:40Z</time>
      </trkpt>
      <trkpt lat="44.59265" lon="3.02188">
        <ele>1341.493</ele>
        <time>2011-06-25T13:45:51Z</time>
      </trkpt>
      <trkpt lat="44.59252" lon="3.02177">
        <ele>1341.596</ele>
        <time>2011-06-25T13:46:04Z</time>
      </trkpt>
      <trkpt lat="44.59243" lon="3.02165">
        <ele>1341.06</ele>
        <time>2011-06-25T13:46:16Z</time>
      </trkpt>
      <trkpt lat="44.59225" lon="3.02157">
        <ele>1340.481</ele>
        <time>2011-06-25T13:46:28Z</time>
      </trkpt>
      <trkpt lat="44.59214" lon="3.02147">
        <ele>1339.989</ele>
        <time>2011-06-25T13:46:37Z</time>
      </trkpt>
      <trkpt lat="44.59215" lon="3.0213">
        <ele>1339.544</ele>
        <time>2011-06-25T13:46:46Z</time>
      </trkpt>
      <trkpt lat="44.59218" lon="3.02116">
        <ele>1338.305</ele>
        <time>2011-06-25T13:46:56Z</time>
      </trkpt>
      <trkpt lat="44.59223" lon="3.021">
        <ele>1337.091</ele>
        <time>2011-06-25T13:47:05Z</time>
      </trkpt>
      <trkpt lat="44.59229" lon="3.02084">
        <ele>1336.063</ele>
        <time>2011-06-25T13:47:16Z</time>
      </trkpt>
      <trkpt lat="44.59234" lon="3.02064">
        <ele>1335.432</ele>
        <time>2011-06-25T13:47:27Z</time>
      </trkpt>
      <trkpt lat="44.59224" lon="3.02056">
        <ele>1336.068</ele>
        <time>2011-06-25T13:47:38Z</time>
      </trkpt>
      <trkpt lat="44.59214" lon="3.02051">
        <ele>1335.872</ele>
        <time>2011-06-25T13:47:46Z</time>
      </trkpt>
      <trkpt lat="44.59204" lon="3.02043">
        <ele>1336.505</ele>
        <time>2011-06-25T13:47:55Z</time>
      </trkpt>
      <trkpt lat="44.5919" lon="3.02035">
        <ele>1336.515</ele>
        <time>2011-06-25T13:48:05Z</time>
      </trkpt>
      <trkpt lat="44.59179" lon="3.02024">
        <ele>1336.526</ele>
        <time>2011-06-25T13:48:14Z</time>
      </trkpt>
      <trkpt lat="44.59172" lon="3.02011">
        <ele>1336.473</ele>
        <time>2011-06-25T13:48:26Z</time>
      </trkpt>
      <trkpt lat="44.59171" lon="3.01994">
        <ele>1336.473</ele>
        <time>2011-06-25T13:48:44Z</time>
      </trkpt>
      <trkpt lat="44.59168" lon="3.01978">
        <ele>1335.301</ele>
        <time>2011-06-25T13:48:56Z</time>
      </trkpt>
      <trkpt lat="44.59157" lon="3.01961">
        <ele>1334.385</ele>
        <time>2011-06-25T13:49:11Z</time>
      </trkpt>
      <trkpt lat="44.59152" lon="3.01935">
        <ele>1332.848</ele>
        <time>2011-06-25T13:49:25Z</time>
      </trkpt>
      <trkpt lat="44.59148" lon="3.01916">
        <ele>1332.552</ele>
        <time>2011-06-25T13:49:35Z</time>
      </trkpt>
      <trkpt lat="44.59142" lon="3.01897">
        <ele>1331.375</ele>
        <time>2011-06-25T13:49:46Z</time>
      </trkpt>
      <trkpt lat="44.59141" lon="3.01878">
        <ele>1330.812</ele>
        <time>2011-06-25T13:49:59Z</time>
      </trkpt>
      <trkpt lat="44.59145" lon="3.01861">
        <ele>1330.682</ele>
        <time>2011-06-25T13:50:12Z</time>
      </trkpt>
      <trkpt lat="44.59149" lon="3.01845">
        <ele>1329.812</ele>
        <time>2011-06-25T13:50:23Z</time>
      </trkpt>
      <trkpt lat="44.59158" lon="3.01825">
        <ele>1328.951</ele>
        <time>2011-06-25T13:50:34Z</time>
      </trkpt>
      <trkpt lat="44.59165" lon="3.01812">
        <ele>1328.366</ele>
        <time>2011-06-25T13:50:48Z</time>
      </trkpt>
      <trkpt lat="44.5917" lon="3.01805">
        <ele>1327.804</ele>
        <time>2011-06-25T13:50:57Z</time>
      </trkpt>
      <trkpt lat="44.59181" lon="3.01797">
        <ele>1327.164</ele>
        <time>2011-06-25T13:51:09Z</time>
      </trkpt>
      <trkpt lat="44.59191" lon="3.01783">
        <ele>1326.328</ele>
        <time>2011-06-25T13:51:20Z</time>
      </trkpt>
      <trkpt lat="44.59198" lon="3.01769">
        <ele>1326.122</ele>
        <time>2011-06-25T13:51:31Z</time>
      </trkpt>
      <trkpt lat="44.59203" lon="3.01754">
        <ele>1326.155</ele>
        <time>2011-06-25T13:51:41Z</time>
      </trkpt>
      <trkpt lat="44.59209" lon="3.01742">
        <ele>1326.512</ele>
        <time>2011-06-25T13:51:52Z</time>
      </trkpt>
      <trkpt lat="44.59221" lon="3.01738">
        <ele>1326.131</ele>
        <time>2011-06-25T13:52:04Z</time>
      </trkpt>
      <trkpt lat="44.59233" lon="3.01727">
        <ele>1326.366</ele>
        <time>2011-06-25T13:52:16Z</time>
      </trkpt>
      <trkpt lat="44.59244" lon="3.01714">
        <ele>1325.68</ele>
        <time>2011-06-25T13:52:28Z</time>
      </trkpt>
      <trkpt lat="44.5925" lon="3.01695">
        <ele>1325.923</ele>
        <time>2011-06-25T13:52:42Z</time>
      </trkpt>
      <trkpt lat="44.59259" lon="3.01677">
        <ele>1325.793</ele>
        <time>2011-06-25T13:52:57Z</time>
      </trkpt>
      <trkpt lat="44.59264" lon="3.01654">
        <ele>1326.11</ele>
        <time>2011-06-25T13:53:13Z</time>
      </trkpt>
      <trkpt lat="44.59264" lon="3.01626">
        <ele>1326.531</ele>
        <time>2011-06-25T13:53:30Z</time>
      </trkpt>
      <trkpt lat="44.59267" lon="3.016">
        <ele>1325.894</ele>
        <time>2011-06-25T13:53:49Z</time>
      </trkpt>
      <trkpt lat="44.59277" lon="3.01583">
        <ele>1325.585</ele>
        <time>2011-06-25T13:54:03Z</time>
      </trkpt>
      <trkpt lat="44.59291" lon="3.01567">
        <ele>1324.608</ele>
        <time>2011-06-25T13:55:04Z</time>
      </trkpt>
      <trkpt lat="44.59279" lon="3.01558">
        <ele>1324.485</ele>
        <time>2011-06-25T13:56:34Z</time>
      </trkpt>
      <trkpt lat="44.59293" lon="3.01549">
        <ele>1323.519</ele>
        <time>2011-06-25T13:58:29Z</time>
      </trkpt>
      <trkpt lat="44.59286" lon="3.01526">
        <ele>1322.77</ele>
        <time>2011-06-25T13:58:47Z</time>
      </trkpt>
      <trkpt lat="44.59282" lon="3.01507">
        <ele>1322.499</ele>
        <time>2011-06-25T13:59:02Z</time>
      </trkpt>
      <trkpt lat="44.59282" lon="3.01488">
        <ele>1322.106</ele>
        <time>2011-06-25T13:59:15Z</time>
      </trkpt>
      <trkpt lat="44.59278" lon="3.01467">
        <ele>1321.298</ele>
        <time>2011-06-25T13:59:30Z</time>
      </trkpt>
      <trkpt lat="44.59281" lon="3.01442">
        <ele>1319.902</ele>
        <time>2011-06-25T13:59:43Z</time>
      </trkpt>
      <trkpt lat="44.59286" lon="3.01428">
        <ele>1319.562</ele>
        <time>2011-06-25T13:59:54Z</time>
      </trkpt>
      <trkpt lat="44.59284" lon="3.01408">
        <ele>1318.942</ele>
        <time>2011-06-25T14:00:05Z</time>
      </trkpt>
      <trkpt lat="44.59277" lon="3.0139">
        <ele>1318.646</ele>
        <time>2011-06-25T14:00:17Z</time>
      </trkpt>
      <trkpt lat="44.59266" lon="3.01374">
        <ele>1318.071</ele>
        <time>2011-06-25T14:00:34Z</time>
      </trkpt>
      <trkpt lat="44.59258" lon="3.01357">
        <ele>1318.046</ele>
        <time>2011-06-25T14:00:45Z</time>
      </trkpt>
      <trkpt lat="44.59248" lon="3.01334">
        <ele>1316.292</ele>
        <time>2011-06-25T14:01:00Z</time>
      </trkpt>
      <trkpt lat="44.59237" lon="3.01317">
        <ele>1315.914</ele>
        <time>2011-06-25T14:01:14Z</time>
      </trkpt>
      <trkpt lat="44.59223" lon="3.01306">
        <ele>1315.289</ele>
        <time>2011-06-25T14:01:28Z</time>
      </trkpt>
      <trkpt lat="44.59202" lon="3.01287">
        <ele>1314.024</ele>
        <time>2011-06-25T14:01:48Z</time>
      </trkpt>
      <trkpt lat="44.5919" lon="3.0127">
        <ele>1312.935</ele>
        <time>2011-06-25T14:02:04Z</time>
      </trkpt>
      <trkpt lat="44.59178" lon="3.01252">
        <ele>1312.369</ele>
        <time>2011-06-25T14:02:19Z</time>
      </trkpt>
      <trkpt lat="44.5917" lon="3.01228">
        <ele>1311.441</ele>
        <time>2011-06-25T14:02:35Z</time>
      </trkpt>
      <trkpt lat="44.59165" lon="3.0121">
        <ele>1311.439</ele>
        <time>2011-06-25T14:02:49Z</time>
      </trkpt>
      <trkpt lat="44.59156" lon="3.01195">
        <ele>1310.783</ele>
        <time>2011-06-25T14:03:00Z</time>
      </trkpt>
      <trkpt lat="44.59152" lon="3.01174">
        <ele>1310.599</ele>
        <time>2011-06-25T14:03:13Z</time>
      </trkpt>
      <trkpt lat="44.59148" lon="3.01156">
        <ele>1309.722</ele>
        <time>2011-06-25T14:03:25Z</time>
      </trkpt>
      <trkpt lat="44.59146" lon="3.01133">
        <ele>1308.539</ele>
        <time>2011-06-25T14:03:39Z</time>
      </trkpt>
      <trkpt lat="44.59145" lon="3.01116">
        <ele>1308.129</ele>
        <time>2011-06-25T14:03:52Z</time>
      </trkpt>
      <trkpt lat="44.5915" lon="3.01096">
        <ele>1307.721</ele>
        <time>2011-06-25T14:04:09Z</time>
      </trkpt>
      <trkpt lat="44.5915" lon="3.01081">
        <ele>1307.95</ele>
        <time>2011-06-25T14:04:21Z</time>
      </trkpt>
      <trkpt lat="44.59153" lon="3.01073">
        <ele>1307.471</ele>
        <time>2011-06-25T14:04:32Z</time>
      </trkpt>
      <trkpt lat="44.59155" lon="3.01061">
        <ele>1308.132</ele>
        <time>2011-06-25T14:04:59Z</time>
      </trkpt>
      <trkpt lat="44.59158" lon="3.01046">
        <ele>1308.049</ele>
        <time>2011-06-25T14:05:08Z</time>
      </trkpt>
      <trkpt lat="44.59163" lon="3.01034">
        <ele>1308.244</ele>
        <time>2011-06-25T14:05:18Z</time>
      </trkpt>
      <trkpt lat="44.59169" lon="3.01021">
        <ele>1308.378</ele>
        <time>2011-06-25T14:05:27Z</time>
      </trkpt>
      <trkpt lat="44.59177" lon="3.01011">
        <ele>1308.743</ele>
        <time>2011-06-25T14:05:37Z</time>
      </trkpt>
      <trkpt lat="44.59183" lon="3.01">
        <ele>1308.742</ele>
        <time>2011-06-25T14:05:46Z</time>
      </trkpt>
      <trkpt lat="44.5919" lon="3.00991">
        <ele>1309.025</ele>
        <time>2011-06-25T14:05:57Z</time>
      </trkpt>
      <trkpt lat="44.59199" lon="3.00977">
        <ele>1309.016</ele>
        <time>2011-06-25T14:06:09Z</time>
      </trkpt>
      <trkpt lat="44.59208" lon="3.00961">
        <ele>1309.954</ele>
        <time>2011-06-25T14:06:22Z</time>
      </trkpt>
      <trkpt lat="44.59221" lon="3.00949">
        <ele>1311.059</ele>
        <time>2011-06-25T14:06:40Z</time>
      </trkpt>
      <trkpt lat="44.59232" lon="3.0093">
        <ele>1312.382</ele>
        <time>2011-06-25T14:06:59Z</time>
      </trkpt>
      <trkpt lat="44.59248" lon="3.00912">
        <ele>1313.059</ele>
        <time>2011-06-25T14:07:15Z</time>
      </trkpt>
      <trkpt lat="44.59261" lon="3.00901">
        <ele>1312.165</ele>
        <time>2011-06-25T14:07:29Z</time>
      </trkpt>
      <trkpt lat="44.5927" lon="3.00888">
        <ele>1312.942</ele>
        <time>2011-06-25T14:07:41Z</time>
      </trkpt>
      <trkpt lat="44.59281" lon="3.00876">
        <ele>1312.86</ele>
        <time>2011-06-25T14:07:55Z</time>
      </trkpt>
      <trkpt lat="44.59292" lon="3.00864">
        <ele>1313.619</ele>
        <time>2011-06-25T14:08:09Z</time>
      </trkpt>
      <trkpt lat="44.59303" lon="3.00842">
        <ele>1315.585</ele>
        <time>2011-06-25T14:08:24Z</time>
      </trkpt>
      <trkpt lat="44.5931" lon="3.00832">
        <ele>1316.089</ele>
        <time>2011-06-25T14:08:35Z</time>
      </trkpt>
      <trkpt lat="44.59315" lon="3.00822">
        <ele>1316.526</ele>
        <time>2011-06-25T14:08:44Z</time>
      </trkpt>
      <trkpt lat="44.59323" lon="3.00811">
        <ele>1316.529</ele>
        <time>2011-06-25T14:08:53Z</time>
      </trkpt>
      <trkpt lat="44.59332" lon="3.008">
        <ele>1316.662</ele>
        <time>2011-06-25T14:09:07Z</time>
      </trkpt>
      <trkpt lat="44.59341" lon="3.00788">
        <ele>1316.355</ele>
        <time>2011-06-25T14:09:18Z</time>
      </trkpt>
      <trkpt lat="44.59353" lon="3.00773">
        <ele>1317.624</ele>
        <time>2011-06-25T14:09:30Z</time>
      </trkpt>
      <trkpt lat="44.59356" lon="3.00757">
        <ele>1317.359</ele>
        <time>2011-06-25T14:09:42Z</time>
      </trkpt>
      <trkpt lat="44.5936" lon="3.00743">
        <ele>1317.352</ele>
        <time>2011-06-25T14:10:17Z</time>
      </trkpt>
      <trkpt lat="44.5937" lon="3.00732">
        <ele>1317.939</ele>
        <time>2011-06-25T14:10:31Z</time>
      </trkpt>
      <trkpt lat="44.59377" lon="3.00716">
        <ele>1317.366</ele>
        <time>2011-06-25T14:10:47Z</time>
      </trkpt>
      <trkpt lat="44.59379" lon="3.00691">
        <ele>1317.464</ele>
        <time>2011-06-25T14:11:01Z</time>
      </trkpt>
      <trkpt lat="44.5939" lon="3.00678">
        <ele>1316.154</ele>
        <time>2011-06-25T14:11:13Z</time>
      </trkpt>
      <trkpt lat="44.59395" lon="3.0066">
        <ele>1315.47</ele>
        <time>2011-06-25T14:11:26Z</time>
      </trkpt>
      <trkpt lat="44.59399" lon="3.0064">
        <ele>1314.875</ele>
        <time>2011-06-25T14:11:39Z</time>
      </trkpt>
      <trkpt lat="44.59406" lon="3.0062">
        <ele>1314.006</ele>
        <time>2011-06-25T14:11:52Z</time>
      </trkpt>
      <trkpt lat="44.59411" lon="3.00601">
        <ele>1314.315</ele>
        <time>2011-06-25T14:12:03Z</time>
      </trkpt>
      <trkpt lat="44.59414" lon="3.00586">
        <ele>1313.948</ele>
        <time>2011-06-25T14:12:12Z</time>
      </trkpt>
      <trkpt lat="44.59425" lon="3.0057">
        <ele>1314.356</ele>
        <time>2011-06-25T14:12:24Z</time>
      </trkpt>
      <trkpt lat="44.59435" lon="3.00552">
        <ele>1314.89</ele>
        <time>2011-06-25T14:12:36Z</time>
      </trkpt>
      <trkpt lat="44.59445" lon="3.00529">
        <ele>1316.151</ele>
        <time>2011-06-25T14:12:52Z</time>
      </trkpt>
      <trkpt lat="44.5946" lon="3.00509">
        <ele>1318.42</ele>
        <time>2011-06-25T14:13:13Z</time>
      </trkpt>
      <trkpt lat="44.59463" lon="3.00479">
        <ele>1320.428</ele>
        <time>2011-06-25T14:13:36Z</time>
      </trkpt>
      <trkpt lat="44.59467" lon="3.00452">
        <ele>1319.938</ele>
        <time>2011-06-25T14:13:57Z</time>
      </trkpt>
      <trkpt lat="44.59475" lon="3.00439">
        <ele>1319.368</ele>
        <time>2011-06-25T14:14:05Z</time>
      </trkpt>
      <trkpt lat="44.59472" lon="3.00423">
        <ele>1318.516</ele>
        <time>2011-06-25T14:14:11Z</time>
      </trkpt>
      <trkpt lat="44.59466" lon="3.00404">
        <ele>1318.16</ele>
        <time>2011-06-25T14:14:26Z</time>
      </trkpt>
      <trkpt lat="44.59468" lon="3.00388">
        <ele>1317.877</ele>
        <time>2011-06-25T14:14:34Z</time>
      </trkpt>
      <trkpt lat="44.59472" lon="3.0037">
        <ele>1317.631</ele>
        <time>2011-06-25T14:14:44Z</time>
      </trkpt>
      <trkpt lat="44.59467" lon="3.00348">
        <ele>1316.92</ele>
        <time>2011-06-25T14:14:57Z</time>
      </trkpt>
      <trkpt lat="44.59462" lon="3.00319">
        <ele>1317.055</ele>
        <time>2011-06-25T14:15:16Z</time>
      </trkpt>
      <trkpt lat="44.59462" lon="3.00286">
        <ele>1316.738</ele>
        <time>2011-06-25T14:15:31Z</time>
      </trkpt>
      <trkpt lat="44.59469" lon="3.00265">
        <ele>1315.819</ele>
        <time>2011-06-25T14:15:40Z</time>
      </trkpt>
      <trkpt lat="44.59475" lon="3.00245">
        <ele>1316.159</ele>
        <time>2011-06-25T14:15:50Z</time>
      </trkpt>
      <trkpt lat="44.59477" lon="3.00224">
        <ele>1315.99</ele>
        <time>2011-06-25T14:16:00Z</time>
      </trkpt>
      <trkpt lat="44.59482" lon="3.00206">
        <ele>1317.164</ele>
        <time>2011-06-25T14:16:11Z</time>
      </trkpt>
      <trkpt lat="44.59486" lon="3.00184">
        <ele>1317.285</ele>
        <time>2011-06-25T14:16:24Z</time>
      </trkpt>
      <trkpt lat="44.59487" lon="3.00157">
        <ele>1316.175</ele>
        <time>2011-06-25T14:16:39Z</time>
      </trkpt>
      <trkpt lat="44.59496" lon="3.00146">
        <ele>1315.98</ele>
        <time>2011-06-25T14:16:49Z</time>
      </trkpt>
      <trkpt lat="44.59506" lon="3.00125">
        <ele>1316.672</ele>
        <time>2011-06-25T14:16:56Z</time>
      </trkpt>
      <trkpt lat="44.59505" lon="3.00111">
        <ele>1315.329</ele>
        <time>2011-06-25T14:17:03Z</time>
      </trkpt>
      <trkpt lat="44.59507" lon="3.00097">
        <ele>1316.677</ele>
        <time>2011-06-25T14:17:13Z</time>
      </trkpt>
      <trkpt lat="44.5951" lon="3.00085">
        <ele>1315.864</ele>
        <time>2011-06-25T14:17:24Z</time>
      </trkpt>
      <trkpt lat="44.59515" lon="3.00076">
        <ele>1316.281</ele>
        <time>2011-06-25T14:17:34Z</time>
      </trkpt>
      <trkpt lat="44.59517" lon="3.00059">
        <ele>1316.115</ele>
        <time>2011-06-25T14:17:42Z</time>
      </trkpt>
      <trkpt lat="44.5953" lon="3.00043">
        <ele>1316.057</ele>
        <time>2011-06-25T14:17:50Z</time>
      </trkpt>
      <trkpt lat="44.59538" lon="3.0004">
        <ele>1317.552</ele>
        <time>2011-06-25T14:17:54Z</time>
      </trkpt>
      <trkpt lat="44.59544" lon="3.00031">
        <ele>1318.699</ele>
        <time>2011-06-25T14:18:01Z</time>
      </trkpt>
      <trkpt lat="44.59541" lon="3.0001">
        <ele>1318.688</ele>
        <time>2011-06-25T14:18:11Z</time>
      </trkpt>
      <trkpt lat="44.59545" lon="2.99994">
        <ele>1318.078</ele>
        <time>2011-06-25T14:18:19Z</time>
      </trkpt>
      <trkpt lat="44.59547" lon="2.99978">
        <ele>1319.24</ele>
        <time>2011-06-25T14:18:27Z</time>
      </trkpt>
      <trkpt lat="44.59551" lon="2.99961">
        <ele>1318.363</ele>
        <time>2011-06-25T14:18:38Z</time>
      </trkpt>
      <trkpt lat="44.59554" lon="2.99943">
        <ele>1318.128</ele>
        <time>2011-06-25T14:18:48Z</time>
      </trkpt>
      <trkpt lat="44.59554" lon="2.99929">
        <ele>1319.008</ele>
        <time>2011-06-25T14:18:59Z</time>
      </trkpt>
      <trkpt lat="44.59566" lon="2.99915">
        <ele>1318.321</ele>
        <time>2011-06-25T14:19:08Z</time>
      </trkpt>
      <trkpt lat="44.59578" lon="2.99906">
        <ele>1317.401</ele>
        <time>2011-06-25T14:19:17Z</time>
      </trkpt>
      <trkpt lat="44.59586" lon="2.9989">
        <ele>1316.942</ele>
        <time>2011-06-25T14:19:26Z</time>
      </trkpt>
      <trkpt lat="44.59592" lon="2.99877">
        <ele>1315.343</ele>
        <time>2011-06-25T14:19:35Z</time>
      </trkpt>
      <trkpt lat="44.59596" lon="2.99862">
        <ele>1314.344</ele>
        <time>2011-06-25T14:19:43Z</time>
      </trkpt>
      <trkpt lat="44.59599" lon="2.99849">
        <ele>1316.257</ele>
        <time>2011-06-25T14:19:52Z</time>
      </trkpt>
      <trkpt lat="44.59601" lon="2.99834">
        <ele>1314.482</ele>
        <time>2011-06-25T14:20:02Z</time>
      </trkpt>
      <trkpt lat="44.5962" lon="2.99827">
        <ele>1315.126</ele>
        <time>2011-06-25T14:20:10Z</time>
      </trkpt>
      <trkpt lat="44.59617" lon="2.99805">
        <ele>1315.211</ele>
        <time>2011-06-25T14:20:20Z</time>
      </trkpt>
      <trkpt lat="44.59624" lon="2.99794">
        <ele>1315.142</ele>
        <time>2011-06-25T14:20:27Z</time>
      </trkpt>
      <trkpt lat="44.59626" lon="2.99777">
        <ele>1314.986</ele>
        <time>2011-06-25T14:20:37Z</time>
      </trkpt>
      <trkpt lat="44.59629" lon="2.99765">
        <ele>1315.676</ele>
        <time>2011-06-25T14:20:45Z</time>
      </trkpt>
      <trkpt lat="44.59629" lon="2.99743">
        <ele>1313.715</ele>
        <time>2011-06-25T14:20:56Z</time>
      </trkpt>
      <trkpt lat="44.59635" lon="2.99733">
        <ele>1315.536</ele>
        <time>2011-06-25T14:21:05Z</time>
      </trkpt>
      <trkpt lat="44.59648" lon="2.99722">
        <ele>1313.892</ele>
        <time>2011-06-25T14:21:16Z</time>
      </trkpt>
      <trkpt lat="44.59656" lon="2.99709">
        <ele>1314.104</ele>
        <time>2011-06-25T14:21:23Z</time>
      </trkpt>
      <trkpt lat="44.59656" lon="2.99691">
        <ele>1314.556</ele>
        <time>2011-06-25T14:21:31Z</time>
      </trkpt>
      <trkpt lat="44.59661" lon="2.9968">
        <ele>1314.32</ele>
        <time>2011-06-25T14:21:41Z</time>
      </trkpt>
      <trkpt lat="44.59672" lon="2.99664">
        <ele>1312.96</ele>
        <time>2011-06-25T14:21:51Z</time>
      </trkpt>
      <trkpt lat="44.59674" lon="2.9965">
        <ele>1313.47</ele>
        <time>2011-06-25T14:21:59Z</time>
      </trkpt>
      <trkpt lat="44.59674" lon="2.99637">
        <ele>1313.895</ele>
        <time>2011-06-25T14:22:09Z</time>
      </trkpt>
      <trkpt lat="44.59671" lon="2.99623">
        <ele>1314.865</ele>
        <time>2011-06-25T14:22:17Z</time>
      </trkpt>
      <trkpt lat="44.59674" lon="2.99608">
        <ele>1313.966</ele>
        <time>2011-06-25T14:22:28Z</time>
      </trkpt>
      <trkpt lat="44.59669" lon="2.99581">
        <ele>1311.797</ele>
        <time>2011-06-25T14:22:41Z</time>
      </trkpt>
      <trkpt lat="44.59677" lon="2.99565">
        <ele>1314.675</ele>
        <time>2011-06-25T14:22:49Z</time>
      </trkpt>
      <trkpt lat="44.59691" lon="2.99552">
        <ele>1313.718</ele>
        <time>2011-06-25T14:22:58Z</time>
      </trkpt>
      <trkpt lat="44.59695" lon="2.99538">
        <ele>1315</ele>
        <time>2011-06-25T14:23:06Z</time>
      </trkpt>
      <trkpt lat="44.59706" lon="2.99528">
        <ele>1312.666</ele>
        <time>2011-06-25T14:23:13Z</time>
      </trkpt>
      <trkpt lat="44.59716" lon="2.99517">
        <ele>1312.32</ele>
        <time>2011-06-25T14:23:20Z</time>
      </trkpt>
      <trkpt lat="44.59726" lon="2.99505">
        <ele>1312.363</ele>
        <time>2011-06-25T14:23:28Z</time>
      </trkpt>
      <trkpt lat="44.59724" lon="2.99485">
        <ele>1313.316</ele>
        <time>2011-06-25T14:23:38Z</time>
      </trkpt>
      <trkpt lat="44.5973" lon="2.99478">
        <ele>1312.857</ele>
        <time>2011-06-25T14:23:48Z</time>
      </trkpt>
      <trkpt lat="44.59739" lon="2.99465">
        <ele>1313.367</ele>
        <time>2011-06-25T14:23:57Z</time>
      </trkpt>
      <trkpt lat="44.59748" lon="2.99449">
        <ele>1313.787</ele>
        <time>2011-06-25T14:24:07Z</time>
      </trkpt>
      <trkpt lat="44.59752" lon="2.99436">
        <ele>1314.823</ele>
        <time>2011-06-25T14:24:17Z</time>
      </trkpt>
      <trkpt lat="44.59763" lon="2.99424">
        <ele>1315.784</ele>
        <time>2011-06-25T14:24:25Z</time>
      </trkpt>
      <trkpt lat="44.59771" lon="2.99408">
        <ele>1315.829</ele>
        <time>2011-06-25T14:24:36Z</time>
      </trkpt>
      <trkpt lat="44.59783" lon="2.99402">
        <ele>1315.721</ele>
        <time>2011-06-25T14:24:43Z</time>
      </trkpt>
      <trkpt lat="44.59793" lon="2.9939">
        <ele>1316.725</ele>
        <time>2011-06-25T14:24:52Z</time>
      </trkpt>
      <trkpt lat="44.59795" lon="2.99361">
        <ele>1317.61</ele>
        <time>2011-06-25T14:25:03Z</time>
      </trkpt>
      <trkpt lat="44.59788" lon="2.99365">
        <ele>1317.732</ele>
        <time>2011-06-25T14:25:12Z</time>
      </trkpt>
      <trkpt lat="44.598" lon="2.9937">
        <ele>1318.997</ele>
        <time>2011-06-25T14:25:28Z</time>
      </trkpt>
      <trkpt lat="44.59819" lon="2.99369">
        <ele>1319.243</ele>
        <time>2011-06-25T14:25:44Z</time>
      </trkpt>
      <trkpt lat="44.59834" lon="2.99365">
        <ele>1319.156</ele>
        <time>2011-06-25T14:25:55Z</time>
      </trkpt>
      <trkpt lat="44.59843" lon="2.99351">
        <ele>1318.791</ele>
        <time>2011-06-25T14:26:02Z</time>
      </trkpt>
      <trkpt lat="44.59846" lon="2.99328">
        <ele>1318.416</ele>
        <time>2011-06-25T14:26:12Z</time>
      </trkpt>
      <trkpt lat="44.59845" lon="2.99305">
        <ele>1317.542</ele>
        <time>2011-06-25T14:26:22Z</time>
      </trkpt>
      <trkpt lat="44.59842" lon="2.99285">
        <ele>1316.344</ele>
        <time>2011-06-25T14:26:31Z</time>
      </trkpt>
      <trkpt lat="44.59851" lon="2.99273">
        <ele>1317.158</ele>
        <time>2011-06-25T14:26:42Z</time>
      </trkpt>
      <trkpt lat="44.59865" lon="2.99263">
        <ele>1315.552</ele>
        <time>2011-06-25T14:26:49Z</time>
      </trkpt>
      <trkpt lat="44.59879" lon="2.99249">
        <ele>1315.496</ele>
        <time>2011-06-25T14:26:57Z</time>
      </trkpt>
      <trkpt lat="44.59888" lon="2.99238">
        <ele>1314.217</ele>
        <time>2011-06-25T14:27:04Z</time>
      </trkpt>
      <trkpt lat="44.59895" lon="2.99228">
        <ele>1313.483</ele>
        <time>2011-06-25T14:27:12Z</time>
      </trkpt>
      <trkpt lat="44.59891" lon="2.99206">
        <ele>1315.568</ele>
        <time>2011-06-25T14:27:24Z</time>
      </trkpt>
      <trkpt lat="44.5989" lon="2.99192">
        <ele>1314.336</ele>
        <time>2011-06-25T14:27:34Z</time>
      </trkpt>
      <trkpt lat="44.59901" lon="2.9918">
        <ele>1315.657</ele>
        <time>2011-06-25T14:27:46Z</time>
      </trkpt>
      <trkpt lat="44.59915" lon="2.99172">
        <ele>1316.574</ele>
        <time>2011-06-25T14:27:56Z</time>
      </trkpt>
      <trkpt lat="44.59919" lon="2.99159">
        <ele>1314.508</ele>
        <time>2011-06-25T14:28:07Z</time>
      </trkpt>
      <trkpt lat="44.59938" lon="2.99155">
        <ele>1315.626</ele>
        <time>2011-06-25T14:28:12Z</time>
      </trkpt>
      <trkpt lat="44.59943" lon="2.99146">
        <ele>1316.339</ele>
        <time>2011-06-25T14:28:19Z</time>
      </trkpt>
      <trkpt lat="44.59934" lon="2.99135">
        <ele>1315.562</ele>
        <time>2011-06-25T14:28:32Z</time>
      </trkpt>
      <trkpt lat="44.5994" lon="2.99121">
        <ele>1318.493</ele>
        <time>2011-06-25T14:28:40Z</time>
      </trkpt>
      <trkpt lat="44.59948" lon="2.99119">
        <ele>1314.32</ele>
        <time>2011-06-25T14:28:49Z</time>
      </trkpt>
      <trkpt lat="44.59958" lon="2.99114">
        <ele>1313.475</ele>
        <time>2011-06-25T14:29:01Z</time>
      </trkpt>
      <trkpt lat="44.59968" lon="2.99116">
        <ele>1312.925</ele>
        <time>2011-06-25T14:29:19Z</time>
      </trkpt>
      <trkpt lat="44.59971" lon="2.99118">
        <ele>1313.881</ele>
        <time>2011-06-25T14:30:06Z</time>
      </trkpt>
      <trkpt lat="44.59964" lon="2.99121">
        <ele>1314.927</ele>
        <time>2011-06-25T14:32:03Z</time>
      </trkpt>
      <trkpt lat="44.59976" lon="2.99125">
        <ele>1317.401</ele>
        <time>2011-06-25T14:34:33Z</time>
      </trkpt>
      <trkpt lat="44.59982" lon="2.99139">
        <ele>1317.487</ele>
        <time>2011-06-25T14:35:31Z</time>
      </trkpt>
      <trkpt lat="44.59984" lon="2.99152">
        <ele>1318.375</ele>
        <time>2011-06-25T14:35:41Z</time>
      </trkpt>
      <trkpt lat="44.59991" lon="2.99166">
        <ele>1317.886</ele>
        <time>2011-06-25T14:35:54Z</time>
      </trkpt>
      <trkpt lat="44.59993" lon="2.99181">
        <ele>1316.203</ele>
        <time>2011-06-25T14:36:04Z</time>
      </trkpt>
      <trkpt lat="44.59997" lon="2.99194">
        <ele>1316.699</ele>
        <time>2011-06-25T14:36:13Z</time>
      </trkpt>
      <trkpt lat="44.59999" lon="2.99206">
        <ele>1314.941</ele>
        <time>2011-06-25T14:36:21Z</time>
      </trkpt>
      <trkpt lat="44.60004" lon="2.99219">
        <ele>1314.655</ele>
        <time>2011-06-25T14:36:30Z</time>
      </trkpt>
      <trkpt lat="44.60005" lon="2.99231">
        <ele>1312.915</ele>
        <time>2011-06-25T14:36:40Z</time>
      </trkpt>
      <trkpt lat="44.60015" lon="2.99247">
        <ele>1312.657</ele>
        <time>2011-06-25T14:36:56Z</time>
      </trkpt>
      <trkpt lat="44.6002" lon="2.9926">
        <ele>1310.647</ele>
        <time>2011-06-25T14:37:07Z</time>
      </trkpt>
      <trkpt lat="44.60023" lon="2.99275">
        <ele>1309.187</ele>
        <time>2011-06-25T14:37:18Z</time>
      </trkpt>
      <trkpt lat="44.60027" lon="2.99287">
        <ele>1307.082</ele>
        <time>2011-06-25T14:37:29Z</time>
      </trkpt>
      <trkpt lat="44.60036" lon="2.99302">
        <ele>1306.837</ele>
        <time>2011-06-25T14:37:41Z</time>
      </trkpt>
      <trkpt lat="44.60043" lon="2.99317">
        <ele>1304.782</ele>
        <time>2011-06-25T14:37:52Z</time>
      </trkpt>
      <trkpt lat="44.60047" lon="2.99333">
        <ele>1303.442</ele>
        <time>2011-06-25T14:38:02Z</time>
      </trkpt>
      <trkpt lat="44.60044" lon="2.99345">
        <ele>1302.809</ele>
        <time>2011-06-25T14:38:11Z</time>
      </trkpt>
      <trkpt lat="44.60054" lon="2.99357">
        <ele>1301.725</ele>
        <time>2011-06-25T14:38:24Z</time>
      </trkpt>
      <trkpt lat="44.60067" lon="2.99367">
        <ele>1301.002</ele>
        <time>2011-06-25T14:38:42Z</time>
      </trkpt>
      <trkpt lat="44.60077" lon="2.99387">
        <ele>1299.046</ele>
        <time>2011-06-25T14:38:55Z</time>
      </trkpt>
      <trkpt lat="44.60083" lon="2.99404">
        <ele>1298.993</ele>
        <time>2011-06-25T14:39:05Z</time>
      </trkpt>
      <trkpt lat="44.60099" lon="2.99411">
        <ele>1298.124</ele>
        <time>2011-06-25T14:39:15Z</time>
      </trkpt>
      <trkpt lat="44.60109" lon="2.99423">
        <ele>1296.653</ele>
        <time>2011-06-25T14:39:26Z</time>
      </trkpt>
      <trkpt lat="44.6012" lon="2.99435">
        <ele>1295.953</ele>
        <time>2011-06-25T14:39:36Z</time>
      </trkpt>
      <trkpt lat="44.60128" lon="2.99447">
        <ele>1295.783</ele>
        <time>2011-06-25T14:39:45Z</time>
      </trkpt>
      <trkpt lat="44.60142" lon="2.99458">
        <ele>1295.593</ele>
        <time>2011-06-25T14:39:57Z</time>
      </trkpt>
      <trkpt lat="44.60151" lon="2.9947">
        <ele>1292.961</ele>
        <time>2011-06-25T14:40:04Z</time>
      </trkpt>
      <trkpt lat="44.60157" lon="2.99484">
        <ele>1291.714</ele>
        <time>2011-06-25T14:40:15Z</time>
      </trkpt>
      <trkpt lat="44.60163" lon="2.99494">
        <ele>1292.035</ele>
        <time>2011-06-25T14:40:26Z</time>
      </trkpt>
      <trkpt lat="44.60173" lon="2.99507">
        <ele>1290.246</ele>
        <time>2011-06-25T14:40:36Z</time>
      </trkpt>
      <trkpt lat="44.60181" lon="2.99519">
        <ele>1288.601</ele>
        <time>2011-06-25T14:40:44Z</time>
      </trkpt>
      <trkpt lat="44.60192" lon="2.99525">
        <ele>1289.058</ele>
        <time>2011-06-25T14:40:53Z</time>
      </trkpt>
      <trkpt lat="44.60206" lon="2.99537">
        <ele>1286.372</ele>
        <time>2011-06-25T14:41:07Z</time>
      </trkpt>
      <trkpt lat="44.60217" lon="2.99554">
        <ele>1287.085</ele>
        <time>2011-06-25T14:42:51Z</time>
      </trkpt>
      <trkpt lat="44.6022" lon="2.99563">
        <ele>1285.808</ele>
        <time>2011-06-25T14:43:09Z</time>
      </trkpt>
      <trkpt lat="44.60228" lon="2.99565">
        <ele>1287.136</ele>
        <time>2011-06-25T14:43:21Z</time>
      </trkpt>
      <trkpt lat="44.6024" lon="2.99571">
        <ele>1285.194</ele>
        <time>2011-06-25T14:43:52Z</time>
      </trkpt>
      <trkpt lat="44.60247" lon="2.99576">
        <ele>1284.265</ele>
        <time>2011-06-25T14:44:05Z</time>
      </trkpt>
      <trkpt lat="44.60259" lon="2.99588">
        <ele>1282.958</ele>
        <time>2011-06-25T14:44:19Z</time>
      </trkpt>
      <trkpt lat="44.60275" lon="2.99598">
        <ele>1281.299</ele>
        <time>2011-06-25T14:44:28Z</time>
      </trkpt>
      <trkpt lat="44.60282" lon="2.99601">
        <ele>1281.233</ele>
        <time>2011-06-25T14:44:37Z</time>
      </trkpt>
      <trkpt lat="44.60315" lon="2.99615">
        <ele>1276.408</ele>
        <time>2011-06-25T14:45:09Z</time>
      </trkpt>
      <trkpt lat="44.60357" lon="2.99639">
        <ele>1271.599</ele>
        <time>2011-06-25T14:45:54Z</time>
      </trkpt>
      <trkpt lat="44.60386" lon="2.99648">
        <ele>1269.904</ele>
        <time>2011-06-25T14:46:08Z</time>
      </trkpt>
      <trkpt lat="44.60405" lon="2.99663">
        <ele>1267.203</ele>
        <time>2011-06-25T14:46:36Z</time>
      </trkpt>
      <trkpt lat="44.6042" lon="2.99678">
        <ele>1265.122</ele>
        <time>2011-06-25T14:46:54Z</time>
      </trkpt>
      <trkpt lat="44.60436" lon="2.99693">
        <ele>1264.382</ele>
        <time>2011-06-25T14:48:57Z</time>
      </trkpt>
      <trkpt lat="44.60465" lon="2.99697">
        <ele>1258.297</ele>
        <time>2011-06-25T14:50:47Z</time>
      </trkpt>
      <trkpt lat="44.60484" lon="2.99705">
        <ele>1255.841</ele>
        <time>2011-06-25T14:51:05Z</time>
      </trkpt>
      <trkpt lat="44.6051" lon="2.99703">
        <ele>1252.993</ele>
        <time>2011-06-25T14:51:24Z</time>
      </trkpt>
      <trkpt lat="44.60529" lon="2.99697">
        <ele>1249.429</ele>
        <time>2011-06-25T14:51:43Z</time>
      </trkpt>
      <trkpt lat="44.60549" lon="2.99706">
        <ele>1245.357</ele>
        <time>2011-06-25T14:52:04Z</time>
      </trkpt>
      <trkpt lat="44.60573" lon="2.9971">
        <ele>1240.016</ele>
        <time>2011-06-25T14:52:34Z</time>
      </trkpt>
      <trkpt lat="44.60627" lon="2.99681">
        <ele>1230.5</ele>
        <time>2011-06-25T14:53:35Z</time>
      </trkpt>
      <trkpt lat="44.60658" lon="2.99674">
        <ele>1225.774</ele>
        <time>2011-06-25T14:54:06Z</time>
      </trkpt>
      <trkpt lat="44.60699" lon="2.99686">
        <ele>1219.253</ele>
        <time>2011-06-25T14:54:49Z</time>
      </trkpt>
      <trkpt lat="44.60716" lon="2.99707">
        <ele>1216.236</ele>
        <time>2011-06-25T14:55:43Z</time>
      </trkpt>
      <trkpt lat="44.6072" lon="2.99703">
        <ele>1217.77</ele>
        <time>2011-06-25T14:57:09Z</time>
      </trkpt>
      <trkpt lat="44.60737" lon="2.99691">
        <ele>1217.664</ele>
        <time>2011-06-25T14:57:24Z</time>
      </trkpt>
      <trkpt lat="44.60748" lon="2.99686">
        <ele>1217.463</ele>
        <time>2011-06-25T14:57:32Z</time>
      </trkpt>
      <trkpt lat="44.60755" lon="2.99675">
        <ele>1216.606</ele>
        <time>2011-06-25T14:57:45Z</time>
      </trkpt>
      <trkpt lat="44.60766" lon="2.99664">
        <ele>1215.789</ele>
        <time>2011-06-25T14:57:56Z</time>
      </trkpt>
      <trkpt lat="44.60774" lon="2.9965">
        <ele>1215.557</ele>
        <time>2011-06-25T14:58:04Z</time>
      </trkpt>
      <trkpt lat="44.60779" lon="2.99635">
        <ele>1215.097</ele>
        <time>2011-06-25T14:58:14Z</time>
      </trkpt>
      <trkpt lat="44.60791" lon="2.99634">
        <ele>1214.837</ele>
        <time>2011-06-25T14:58:23Z</time>
      </trkpt>
      <trkpt lat="44.60802" lon="2.99629">
        <ele>1214.999</ele>
        <time>2011-06-25T14:58:34Z</time>
      </trkpt>
      <trkpt lat="44.60817" lon="2.9962">
        <ele>1214.79</ele>
        <time>2011-06-25T14:58:51Z</time>
      </trkpt>
      <trkpt lat="44.60828" lon="2.99615">
        <ele>1214.372</ele>
        <time>2011-06-25T14:59:01Z</time>
      </trkpt>
      <trkpt lat="44.60845" lon="2.99609">
        <ele>1214.551</ele>
        <time>2011-06-25T14:59:14Z</time>
      </trkpt>
      <trkpt lat="44.60853" lon="2.99604">
        <ele>1214.678</ele>
        <time>2011-06-25T14:59:21Z</time>
      </trkpt>
      <trkpt lat="44.60865" lon="2.99588">
        <ele>1214.422</ele>
        <time>2011-06-25T14:59:32Z</time>
      </trkpt>
      <trkpt lat="44.60878" lon="2.99573">
        <ele>1215.122</ele>
        <time>2011-06-25T14:59:46Z</time>
      </trkpt>
      <trkpt lat="44.60886" lon="2.99557">
        <ele>1215.13</ele>
        <time>2011-06-25T14:59:58Z</time>
      </trkpt>
      <trkpt lat="44.60897" lon="2.99545">
        <ele>1214.95</ele>
        <time>2011-06-25T15:00:10Z</time>
      </trkpt>
      <trkpt lat="44.60907" lon="2.99529">
        <ele>1215.207</ele>
        <time>2011-06-25T15:00:21Z</time>
      </trkpt>
      <trkpt lat="44.60914" lon="2.99516">
        <ele>1215.199</ele>
        <time>2011-06-25T15:00:31Z</time>
      </trkpt>
      <trkpt lat="44.60924" lon="2.995">
        <ele>1215.701</ele>
        <time>2011-06-25T15:00:42Z</time>
      </trkpt>
      <trkpt lat="44.60935" lon="2.99493">
        <ele>1215.759</ele>
        <time>2011-06-25T15:00:54Z</time>
      </trkpt>
      <trkpt lat="44.60945" lon="2.99485">
        <ele>1216.507</ele>
        <time>2011-06-25T15:01:06Z</time>
      </trkpt>
      <trkpt lat="44.6096" lon="2.99477">
        <ele>1218.644</ele>
        <time>2011-06-25T15:01:17Z</time>
      </trkpt>
      <trkpt lat="44.60971" lon="2.99474">
        <ele>1219.289</ele>
        <time>2011-06-25T15:01:29Z</time>
      </trkpt>
      <trkpt lat="44.60979" lon="2.9947">
        <ele>1219.802</ele>
        <time>2011-06-25T15:01:40Z</time>
      </trkpt>
      <trkpt lat="44.6099" lon="2.99474">
        <ele>1220.79</ele>
        <time>2011-06-25T15:01:50Z</time>
      </trkpt>
      <trkpt lat="44.61001" lon="2.99445">
        <ele>1223.646</ele>
        <time>2011-06-25T15:02:13Z</time>
      </trkpt>
      <trkpt lat="44.61009" lon="2.99421">
        <ele>1224.011</ele>
        <time>2011-06-25T15:02:28Z</time>
      </trkpt>
      <trkpt lat="44.61026" lon="2.99411">
        <ele>1225.551</ele>
        <time>2011-06-25T15:02:42Z</time>
      </trkpt>
      <trkpt lat="44.6103" lon="2.99392">
        <ele>1226.846</ele>
        <time>2011-06-25T15:02:53Z</time>
      </trkpt>
      <trkpt lat="44.61032" lon="2.99378">
        <ele>1229.385</ele>
        <time>2011-06-25T15:03:11Z</time>
      </trkpt>
      <trkpt lat="44.6105" lon="2.99373">
        <ele>1231.404</ele>
        <time>2011-06-25T15:03:29Z</time>
      </trkpt>
      <trkpt lat="44.61056" lon="2.99355">
        <ele>1233.806</ele>
        <time>2011-06-25T15:03:46Z</time>
      </trkpt>
      <trkpt lat="44.61065" lon="2.99337">
        <ele>1235.962</ele>
        <time>2011-06-25T15:04:04Z</time>
      </trkpt>
      <trkpt lat="44.61076" lon="2.99321">
        <ele>1238.057</ele>
        <time>2011-06-25T15:04:18Z</time>
      </trkpt>
      <trkpt lat="44.61086" lon="2.99314">
        <ele>1239.725</ele>
        <time>2011-06-25T15:04:31Z</time>
      </trkpt>
      <trkpt lat="44.61095" lon="2.99304">
        <ele>1241.448</ele>
        <time>2011-06-25T15:04:43Z</time>
      </trkpt>
      <trkpt lat="44.61106" lon="2.99299">
        <ele>1242.919</ele>
        <time>2011-06-25T15:04:54Z</time>
      </trkpt>
      <trkpt lat="44.61116" lon="2.99295">
        <ele>1245.157</ele>
        <time>2011-06-25T15:05:09Z</time>
      </trkpt>
      <trkpt lat="44.61128" lon="2.99285">
        <ele>1246.37</ele>
        <time>2011-06-25T15:05:24Z</time>
      </trkpt>
      <trkpt lat="44.61145" lon="2.99278">
        <ele>1246.975</ele>
        <time>2011-06-25T15:05:41Z</time>
      </trkpt>
      <trkpt lat="44.61164" lon="2.99272">
        <ele>1247.337</ele>
        <time>2011-06-25T15:05:55Z</time>
      </trkpt>
      <trkpt lat="44.61173" lon="2.9926">
        <ele>1247.75</ele>
        <time>2011-06-25T15:06:07Z</time>
      </trkpt>
      <trkpt lat="44.61188" lon="2.99255">
        <ele>1249.124</ele>
        <time>2011-06-25T15:06:22Z</time>
      </trkpt>
      <trkpt lat="44.61206" lon="2.99251">
        <ele>1253.362</ele>
        <time>2011-06-25T15:06:38Z</time>
      </trkpt>
      <trkpt lat="44.61217" lon="2.99246">
        <ele>1250.025</ele>
        <time>2011-06-25T15:06:53Z</time>
      </trkpt>
      <trkpt lat="44.61235" lon="2.99239">
        <ele>1249.951</ele>
        <time>2011-06-25T15:07:09Z</time>
      </trkpt>
      <trkpt lat="44.61251" lon="2.99229">
        <ele>1249.676</ele>
        <time>2011-06-25T15:07:18Z</time>
      </trkpt>
      <trkpt lat="44.61254" lon="2.99215">
        <ele>1248.601</ele>
        <time>2011-06-25T15:09:08Z</time>
      </trkpt>
      <trkpt lat="44.61266" lon="2.99204">
        <ele>1246.069</ele>
        <time>2011-06-25T15:10:34Z</time>
      </trkpt>
      <trkpt lat="44.61282" lon="2.99208">
        <ele>1246.341</ele>
        <time>2011-06-25T15:10:48Z</time>
      </trkpt>
      <trkpt lat="44.61297" lon="2.99206">
        <ele>1246.892</ele>
        <time>2011-06-25T15:11:00Z</time>
      </trkpt>
      <trkpt lat="44.61316" lon="2.99201">
        <ele>1247.784</ele>
        <time>2011-06-25T15:11:14Z</time>
      </trkpt>
      <trkpt lat="44.61327" lon="2.99199">
        <ele>1248.391</ele>
        <time>2011-06-25T15:11:25Z</time>
      </trkpt>
      <trkpt lat="44.61338" lon="2.99197">
        <ele>1248.059</ele>
        <time>2011-06-25T15:11:36Z</time>
      </trkpt>
      <trkpt lat="44.61352" lon="2.99194">
        <ele>1248.797</ele>
        <time>2011-06-25T15:11:46Z</time>
      </trkpt>
      <trkpt lat="44.61368" lon="2.99198">
        <ele>1246.424</ele>
        <time>2011-06-25T15:13:10Z</time>
      </trkpt>
      <trkpt lat="44.61377" lon="2.99199">
        <ele>1245.423</ele>
        <time>2011-06-25T15:13:20Z</time>
      </trkpt>
      <trkpt lat="44.61387" lon="2.99202">
        <ele>1245.131</ele>
        <time>2011-06-25T15:13:28Z</time>
      </trkpt>
      <trkpt lat="44.61396" lon="2.99206">
        <ele>1245.726</ele>
        <time>2011-06-25T15:13:36Z</time>
      </trkpt>
      <trkpt lat="44.61405" lon="2.99205">
        <ele>1245.906</ele>
        <time>2011-06-25T15:13:44Z</time>
      </trkpt>
      <trkpt lat="44.61415" lon="2.99202">
        <ele>1245.881</ele>
        <time>2011-06-25T15:13:54Z</time>
      </trkpt>
      <trkpt lat="44.61426" lon="2.992">
        <ele>1245.722</ele>
        <time>2011-06-25T15:14:04Z</time>
      </trkpt>
      <trkpt lat="44.61434" lon="2.99197">
        <ele>1246.145</ele>
        <time>2011-06-25T15:14:14Z</time>
      </trkpt>
      <trkpt lat="44.61446" lon="2.99191">
        <ele>1245.173</ele>
        <time>2011-06-25T15:14:23Z</time>
      </trkpt>
      <trkpt lat="44.61458" lon="2.99185">
        <ele>1244.657</ele>
        <time>2011-06-25T15:14:33Z</time>
      </trkpt>
      <trkpt lat="44.61468" lon="2.99184">
        <ele>1244.036</ele>
        <time>2011-06-25T15:14:41Z</time>
      </trkpt>
      <trkpt lat="44.6148" lon="2.99174">
        <ele>1244.313</ele>
        <time>2011-06-25T15:14:55Z</time>
      </trkpt>
      <trkpt lat="44.61492" lon="2.9917">
        <ele>1244.749</ele>
        <time>2011-06-25T15:15:05Z</time>
      </trkpt>
      <trkpt lat="44.61506" lon="2.9917">
        <ele>1244.221</ele>
        <time>2011-06-25T15:15:15Z</time>
      </trkpt>
      <trkpt lat="44.61515" lon="2.99175">
        <ele>1243.391</ele>
        <time>2011-06-25T15:15:24Z</time>
      </trkpt>
      <trkpt lat="44.6153" lon="2.9918">
        <ele>1245</ele>
        <time>2011-06-25T15:15:34Z</time>
      </trkpt>
      <trkpt lat="44.61538" lon="2.99186">
        <ele>1245.172</ele>
        <time>2011-06-25T15:15:42Z</time>
      </trkpt>
      <trkpt lat="44.61544" lon="2.99196">
        <ele>1245.015</ele>
        <time>2011-06-25T15:15:50Z</time>
      </trkpt>
      <trkpt lat="44.61552" lon="2.99204">
        <ele>1245.182</ele>
        <time>2011-06-25T15:15:58Z</time>
      </trkpt>
      <trkpt lat="44.61559" lon="2.99215">
        <ele>1243.903</ele>
        <time>2011-06-25T15:16:07Z</time>
      </trkpt>
      <trkpt lat="44.61568" lon="2.99224">
        <ele>1243.983</ele>
        <time>2011-06-25T15:16:15Z</time>
      </trkpt>
      <trkpt lat="44.61576" lon="2.99234">
        <ele>1243.558</ele>
        <time>2011-06-25T15:16:43Z</time>
      </trkpt>
      <trkpt lat="44.61583" lon="2.99245">
        <ele>1242.789</ele>
        <time>2011-06-25T15:16:58Z</time>
      </trkpt>
      <trkpt lat="44.61586" lon="2.99243">
        <ele>1242.693</ele>
        <time>2011-06-25T15:18:09Z</time>
      </trkpt>
      <trkpt lat="44.61596" lon="2.99236">
        <ele>1242.499</ele>
        <time>2011-06-25T15:18:20Z</time>
      </trkpt>
      <trkpt lat="44.61603" lon="2.99224">
        <ele>1242.21</ele>
        <time>2011-06-25T15:18:32Z</time>
      </trkpt>
      <trkpt lat="44.61607" lon="2.99212">
        <ele>1242.576</ele>
        <time>2011-06-25T15:18:41Z</time>
      </trkpt>
      <trkpt lat="44.61614" lon="2.99201">
        <ele>1243.032</ele>
        <time>2011-06-25T15:18:50Z</time>
      </trkpt>
      <trkpt lat="44.6162" lon="2.9919">
        <ele>1243.595</ele>
        <time>2011-06-25T15:19:00Z</time>
      </trkpt>
      <trkpt lat="44.61627" lon="2.99182">
        <ele>1244.262</ele>
        <time>2011-06-25T15:19:10Z</time>
      </trkpt>
      <trkpt lat="44.6164" lon="2.9918">
        <ele>1244.67</ele>
        <time>2011-06-25T15:19:20Z</time>
      </trkpt>
      <trkpt lat="44.61651" lon="2.99176">
        <ele>1245.456</ele>
        <time>2011-06-25T15:19:31Z</time>
      </trkpt>
      <trkpt lat="44.61659" lon="2.99171">
        <ele>1247.233</ele>
        <time>2011-06-25T15:19:41Z</time>
      </trkpt>
      <trkpt lat="44.61668" lon="2.9916">
        <ele>1248.102</ele>
        <time>2011-06-25T15:19:51Z</time>
      </trkpt>
      <trkpt lat="44.61678" lon="2.99151">
        <ele>1248.999</ele>
        <time>2011-06-25T15:20:05Z</time>
      </trkpt>
      <trkpt lat="44.61686" lon="2.99145">
        <ele>1250.57</ele>
        <time>2011-06-25T15:20:17Z</time>
      </trkpt>
      <trkpt lat="44.61696" lon="2.99138">
        <ele>1251.711</ele>
        <time>2011-06-25T15:20:29Z</time>
      </trkpt>
      <trkpt lat="44.61705" lon="2.9913">
        <ele>1253.711</ele>
        <time>2011-06-25T15:20:41Z</time>
      </trkpt>
      <trkpt lat="44.61714" lon="2.99122">
        <ele>1255.384</ele>
        <time>2011-06-25T15:20:52Z</time>
      </trkpt>
      <trkpt lat="44.61721" lon="2.99112">
        <ele>1256.852</ele>
        <time>2011-06-25T15:21:02Z</time>
      </trkpt>
      <trkpt lat="44.61723" lon="2.991">
        <ele>1258.465</ele>
        <time>2011-06-25T15:21:13Z</time>
      </trkpt>
      <trkpt lat="44.6173" lon="2.99088">
        <ele>1260.277</ele>
        <time>2011-06-25T15:21:25Z</time>
      </trkpt>
      <trkpt lat="44.6174" lon="2.99079">
        <ele>1261.875</ele>
        <time>2011-06-25T15:21:37Z</time>
      </trkpt>
      <trkpt lat="44.6175" lon="2.99081">
        <ele>1262.321</ele>
        <time>2011-06-25T15:22:16Z</time>
      </trkpt>
      <trkpt lat="44.61762" lon="2.9908">
        <ele>1263.626</ele>
        <time>2011-06-25T15:22:28Z</time>
      </trkpt>
      <trkpt lat="44.61777" lon="2.99075">
        <ele>1264.255</ele>
        <time>2011-06-25T15:22:53Z</time>
      </trkpt>
      <trkpt lat="44.61789" lon="2.99073">
        <ele>1262.78</ele>
        <time>2011-06-25T15:23:05Z</time>
      </trkpt>
      <trkpt lat="44.61803" lon="2.99068">
        <ele>1265.922</ele>
        <time>2011-06-25T15:23:15Z</time>
      </trkpt>
      <trkpt lat="44.61816" lon="2.9906">
        <ele>1266.606</ele>
        <time>2011-06-25T15:23:29Z</time>
      </trkpt>
      <trkpt lat="44.61826" lon="2.99051">
        <ele>1267.937</ele>
        <time>2011-06-25T15:23:39Z</time>
      </trkpt>
      <trkpt lat="44.61835" lon="2.99046">
        <ele>1268.685</ele>
        <time>2011-06-25T15:23:50Z</time>
      </trkpt>
      <trkpt lat="44.61844" lon="2.99039">
        <ele>1270.126</ele>
        <time>2011-06-25T15:24:01Z</time>
      </trkpt>
      <trkpt lat="44.61851" lon="2.99032">
        <ele>1271.046</ele>
        <time>2011-06-25T15:24:11Z</time>
      </trkpt>
      <trkpt lat="44.61857" lon="2.99021">
        <ele>1272.077</ele>
        <time>2011-06-25T15:24:24Z</time>
      </trkpt>
      <trkpt lat="44.61865" lon="2.9901">
        <ele>1273.273</ele>
        <time>2011-06-25T15:24:35Z</time>
      </trkpt>
      <trkpt lat="44.61871" lon="2.98999">
        <ele>1274.44</ele>
        <time>2011-06-25T15:24:45Z</time>
      </trkpt>
      <trkpt lat="44.61876" lon="2.98986">
        <ele>1275.493</ele>
        <time>2011-06-25T15:24:55Z</time>
      </trkpt>
      <trkpt lat="44.61879" lon="2.98972">
        <ele>1276.88</ele>
        <time>2011-06-25T15:25:05Z</time>
      </trkpt>
      <trkpt lat="44.61886" lon="2.98961">
        <ele>1278.106</ele>
        <time>2011-06-25T15:25:15Z</time>
      </trkpt>
      <trkpt lat="44.61888" lon="2.98945">
        <ele>1279.237</ele>
        <time>2011-06-25T15:25:25Z</time>
      </trkpt>
      <trkpt lat="44.61889" lon="2.9893">
        <ele>1280.103</ele>
        <time>2011-06-25T15:25:35Z</time>
      </trkpt>
      <trkpt lat="44.61889" lon="2.98915">
        <ele>1281.141</ele>
        <time>2011-06-25T15:25:45Z</time>
      </trkpt>
      <trkpt lat="44.61889" lon="2.98899">
        <ele>1282.48</ele>
        <time>2011-06-25T15:25:55Z</time>
      </trkpt>
      <trkpt lat="44.6189" lon="2.98886">
        <ele>1283.728</ele>
        <time>2011-06-25T15:26:05Z</time>
      </trkpt>
      <trkpt lat="44.61893" lon="2.9887">
        <ele>1283.92</ele>
        <time>2011-06-25T15:26:15Z</time>
      </trkpt>
      <trkpt lat="44.61896" lon="2.98858">
        <ele>1284.426</ele>
        <time>2011-06-25T15:26:24Z</time>
      </trkpt>
      <trkpt lat="44.619" lon="2.98846">
        <ele>1285.48</ele>
        <time>2011-06-25T15:26:34Z</time>
      </trkpt>
      <trkpt lat="44.61905" lon="2.98834">
        <ele>1286.233</ele>
        <time>2011-06-25T15:26:43Z</time>
      </trkpt>
      <trkpt lat="44.61913" lon="2.98825">
        <ele>1286.969</ele>
        <time>2011-06-25T15:26:52Z</time>
      </trkpt>
      <trkpt lat="44.61923" lon="2.98822">
        <ele>1287.121</ele>
        <time>2011-06-25T15:27:13Z</time>
      </trkpt>
      <trkpt lat="44.61934" lon="2.98812">
        <ele>1287.246</ele>
        <time>2011-06-25T15:27:23Z</time>
      </trkpt>
      <trkpt lat="44.61945" lon="2.98807">
        <ele>1287.495</ele>
        <time>2011-06-25T15:27:34Z</time>
      </trkpt>
      <trkpt lat="44.61955" lon="2.98803">
        <ele>1288.667</ele>
        <time>2011-06-25T15:27:46Z</time>
      </trkpt>
      <trkpt lat="44.61967" lon="2.988">
        <ele>1290.162</ele>
        <time>2011-06-25T15:27:58Z</time>
      </trkpt>
      <trkpt lat="44.61977" lon="2.98792">
        <ele>1291.883</ele>
        <time>2011-06-25T15:28:12Z</time>
      </trkpt>
      <trkpt lat="44.6199" lon="2.98785">
        <ele>1293.686</ele>
        <time>2011-06-25T15:28:25Z</time>
      </trkpt>
      <trkpt lat="44.62" lon="2.98779">
        <ele>1295.751</ele>
        <time>2011-06-25T15:28:37Z</time>
      </trkpt>
      <trkpt lat="44.62009" lon="2.98767">
        <ele>1296.503</ele>
        <time>2011-06-25T15:28:50Z</time>
      </trkpt>
      <trkpt lat="44.62021" lon="2.9876">
        <ele>1297.189</ele>
        <time>2011-06-25T15:29:02Z</time>
      </trkpt>
      <trkpt lat="44.62029" lon="2.9875">
        <ele>1298.654</ele>
        <time>2011-06-25T15:29:12Z</time>
      </trkpt>
      <trkpt lat="44.62032" lon="2.98736">
        <ele>1298.702</ele>
        <time>2011-06-25T15:29:22Z</time>
      </trkpt>
      <trkpt lat="44.62037" lon="2.98723">
        <ele>1298.163</ele>
        <time>2011-06-25T15:29:33Z</time>
      </trkpt>
      <trkpt lat="44.62039" lon="2.98709">
        <ele>1298.044</ele>
        <time>2011-06-25T15:29:43Z</time>
      </trkpt>
      <trkpt lat="44.62048" lon="2.98703">
        <ele>1298.671</ele>
        <time>2011-06-25T15:29:53Z</time>
      </trkpt>
      <trkpt lat="44.6206" lon="2.98701">
        <ele>1298.845</ele>
        <time>2011-06-25T15:30:00Z</time>
      </trkpt>
      <trkpt lat="44.62071" lon="2.98703">
        <ele>1299.918</ele>
        <time>2011-06-25T15:30:11Z</time>
      </trkpt>
      <trkpt lat="44.62081" lon="2.98704">
        <ele>1299.429</ele>
        <time>2011-06-25T15:30:21Z</time>
      </trkpt>
      <trkpt lat="44.62092" lon="2.98702">
        <ele>1299.341</ele>
        <time>2011-06-25T15:30:29Z</time>
      </trkpt>
      <trkpt lat="44.62103" lon="2.987">
        <ele>1299.944</ele>
        <time>2011-06-25T15:30:40Z</time>
      </trkpt>
      <trkpt lat="44.62114" lon="2.987">
        <ele>1300.291</ele>
        <time>2011-06-25T15:30:51Z</time>
      </trkpt>
      <trkpt lat="44.62125" lon="2.98702">
        <ele>1300.296</ele>
        <time>2011-06-25T15:31:01Z</time>
      </trkpt>
      <trkpt lat="44.62131" lon="2.98701">
        <ele>1300.722</ele>
        <time>2011-06-25T15:31:36Z</time>
      </trkpt>
      <trkpt lat="44.62143" lon="2.98694">
        <ele>1301.362</ele>
        <time>2011-06-25T15:31:50Z</time>
      </trkpt>
      <trkpt lat="44.6215" lon="2.98675">
        <ele>1304.587</ele>
        <time>2011-06-25T15:34:01Z</time>
      </trkpt>
      <trkpt lat="44.62158" lon="2.98653">
        <ele>1305.456</ele>
        <time>2011-06-25T15:34:18Z</time>
      </trkpt>
      <trkpt lat="44.62168" lon="2.98634">
        <ele>1306.003</ele>
        <time>2011-06-25T15:34:34Z</time>
      </trkpt>
      <trkpt lat="44.6218" lon="2.98614">
        <ele>1306.393</ele>
        <time>2011-06-25T15:34:55Z</time>
      </trkpt>
      <trkpt lat="44.62184" lon="2.98595">
        <ele>1307.198</ele>
        <time>2011-06-25T15:35:15Z</time>
      </trkpt>
      <trkpt lat="44.62181" lon="2.98606">
        <ele>1307.361</ele>
        <time>2011-06-25T15:36:01Z</time>
      </trkpt>
      <trkpt lat="44.62197" lon="2.98611">
        <ele>1307.719</ele>
        <time>2011-06-25T15:36:14Z</time>
      </trkpt>
      <trkpt lat="44.62207" lon="2.9861">
        <ele>1307.645</ele>
        <time>2011-06-25T15:36:21Z</time>
      </trkpt>
      <trkpt lat="44.62191" lon="2.98582">
        <ele>1307.679</ele>
        <time>2011-06-25T15:36:31Z</time>
      </trkpt>
      <trkpt lat="44.62189" lon="2.98573">
        <ele>1307.505</ele>
        <time>2011-06-25T15:36:45Z</time>
      </trkpt>
      <trkpt lat="44.62187" lon="2.9856">
        <ele>1307.698</ele>
        <time>2011-06-25T15:37:00Z</time>
      </trkpt>
    </trkseg>
  </trk>
  <trk>
    <name><![CDATA[ACTIVE LOG173706]]></name>
    <trkseg>
      <trkpt lat="44.62191" lon="2.98581">
        <ele>1307.674</ele>
        <time>2011-06-25T15:37:06Z</time>
      </trkpt>
      <trkpt lat="44.62191" lon="2.98581">
        <ele>1308.686</ele>
        <time>2011-06-25T15:40:39Z</time>
      </trkpt>
    </trkseg>
  </trk>
</gpx>